Time,TemperatureF,DewpointF,PressureIn,WindDirection,WindDirectionDegrees,WindSpeedMPH,WindSpeedGustMPH,Humidity,HourlyPrecipIn,Conditions,Clouds,dailyrainin,SoftwareType,DateUTC
2013-06-10 00:00:00,70.4,67.6,29.86,SE,135,1.7,2.7,91,0.00,,,0.00,WUHU216HW,2013-06-10 04:00:00,
2013-06-10 00:01:00,70.4,67.6,29.86,SE,129,1.5,2.7,91,0.00,,,0.00,WUHU216HW,2013-06-10 04:01:00,
2013-06-10 00:02:00,70.4,67.6,29.86,South,180,1.8,2.7,91,0.00,,,0.00,WUHU216HW,2013-06-10 04:02:00,
2013-06-10 00:06:00,70.4,67.6,29.86,SSE,158,1.8,2.7,91,0.00,,,0.00,WUHU216HW,2013-06-10 04:06:00,
2013-06-10 00:07:00,70.4,67.6,29.86,SSW,203,2.5,2.5,91,0.00,,,0.00,WUHU216HW,2013-06-10 04:07:00,
2013-06-10 00:08:00,70.2,67.4,29.86,SSW,203,1.9,2.5,91,0.00,,,0.00,WUHU216HW,2013-06-10 04:08:00,
2013-06-10 00:11:00,70.2,67.4,29.86,ESE,113,2.5,2.5,91,0.00,,,0.00,WUHU216HW,2013-06-10 04:11:00,
2013-06-10 00:12:00,70.2,67.4,29.86,SSW,203,2.7,2.7,91,0.00,,,0.00,WUHU216HW,2013-06-10 04:12:00,
2013-06-10 00:13:00,70.2,67.4,29.86,South,185,2.3,2.7,91,0.00,,,0.00,WUHU216HW,2013-06-10 04:13:00,
2013-06-10 00:14:00,70.2,67.4,29.87,South,180,3.1,3.1,91,0.00,,,0.00,WUHU216HW,2013-06-10 04:14:00,
2013-06-10 00:17:00,70.2,67.4,29.87,SE,135,1.6,3.1,91,0.00,,,0.00,WUHU216HW,2013-06-10 04:17:00,
2013-06-10 00:19:00,70.2,67.4,29.87,South,180,1.1,3.1,91,0.00,,,0.00,WUHU216HW,2013-06-10 04:19:00,
2013-06-10 00:22:00,70.2,67.4,29.86,South,180,2.9,3.1,91,0.00,,,0.00,WUHU216HW,2013-06-10 04:22:00,
2013-06-10 00:23:00,70.2,67.4,29.86,South,180,2.9,3.1,91,0.00,,,0.00,WUHU216HW,2013-06-10 04:23:00,
2013-06-10 00:24:00,70.2,67.4,29.87,ESE,106,1.3,2.9,91,0.00,,,0.00,WUHU216HW,2013-06-10 04:24:00,
2013-06-10 00:27:00,70.2,67.4,29.86,SE,135,1.9,2.9,91,0.00,,,0.00,WUHU216HW,2013-06-10 04:27:00,
2013-06-10 00:28:00,70.2,67.4,29.86,SE,144,0.9,2.9,91,0.00,,,0.00,WUHU216HW,2013-06-10 04:28:00,
2013-06-10 00:30:00,70.2,67.4,29.86,SW,225,1.6,2.9,91,0.00,,,0.00,WUHU216HW,2013-06-10 04:30:00,
2013-06-10 00:32:00,70.2,67.4,29.86,SE,135,0.9,2.7,91,0.00,,,0.00,WUHU216HW,2013-06-10 04:32:00,
2013-06-10 00:33:00,70.2,67.4,29.86,SE,135,1.6,2.7,91,0.00,,,0.00,WUHU216HW,2013-06-10 04:33:00,
2013-06-10 00:35:00,70.0,67.2,29.86,SE,135,1.1,1.6,91,0.00,,,0.00,WUHU216HW,2013-06-10 04:35:00,
2013-06-10 00:36:00,70.0,67.2,29.86,SE,135,0.9,1.6,91,0.00,,,0.00,WUHU216HW,2013-06-10 04:36:00,
2013-06-10 00:38:00,70.0,67.2,29.86,SSE,158,2.2,2.7,91,0.00,,,0.00,WUHU216HW,2013-06-10 04:38:00,
2013-06-10 00:39:00,70.0,67.2,29.86,SSE,158,1.7,2.7,91,0.00,,,0.00,WUHU216HW,2013-06-10 04:39:00,
2013-06-10 00:40:00,70.0,67.2,29.86,SSE,158,3.4,3.4,91,0.00,,,0.00,WUHU216HW,2013-06-10 04:40:00,
2013-06-10 00:43:00,70.0,67.2,29.86,SSE,158,0.4,3.4,91,0.00,,,0.00,WUHU216HW,2013-06-10 04:43:00,
2013-06-10 00:44:00,70.0,67.2,29.86,SSE,158,2.5,3.4,91,0.00,,,0.00,WUHU216HW,2013-06-10 04:44:00,
2013-06-10 00:45:00,70.0,67.2,29.87,SE,144,1.8,3.4,91,0.00,,,0.00,WUHU216HW,2013-06-10 04:45:00,
2013-06-10 00:47:00,70.0,67.2,29.86,SSE,158,0.4,3.4,91,0.00,,,0.00,WUHU216HW,2013-06-10 04:47:00,
2013-06-10 00:48:00,70.0,67.2,29.87,SSE,158,0.7,3.4,91,0.00,,,0.00,WUHU216HW,2013-06-10 04:48:00,
2013-06-10 00:50:00,70.0,67.2,29.87,SSE,158,0.6,3.4,91,0.00,,,0.00,WUHU216HW,2013-06-10 04:50:00,
2013-06-10 00:53:00,70.0,67.2,29.86,SE,135,0.9,2.5,91,0.00,,,0.00,WUHU216HW,2013-06-10 04:53:00,
2013-06-10 00:54:00,70.0,67.2,29.87,SE,135,0.4,1.1,91,0.00,,,0.00,WUHU216HW,2013-06-10 04:54:00,
2013-06-10 00:55:00,69.8,67.1,29.86,SE,135,0.2,1.1,91,0.00,,,0.00,WUHU216HW,2013-06-10 04:55:00,
2013-06-10 00:56:00,69.8,67.1,29.86,SE,135,0.2,1.1,91,0.00,,,0.00,WUHU216HW,2013-06-10 04:56:00,
2013-06-10 00:58:00,69.8,67.1,29.86,SE,135,0.2,1.1,91,0.00,,,0.00,WUHU216HW,2013-06-10 04:58:00,
2013-06-10 00:59:00,69.8,67.1,29.86,SE,135,0.2,1.1,91,0.00,,,0.00,WUHU216HW,2013-06-10 04:59:00,
2013-06-10 01:01:00,69.8,67.1,29.86,SSW,203,0.2,1.1,91,0.00,,,0.00,WUHU216HW,2013-06-10 05:01:00,
2013-06-10 01:02:00,69.8,67.1,29.87,SW,225,0.9,0.9,91,0.00,,,0.00,WUHU216HW,2013-06-10 05:02:00,
2013-06-10 01:03:00,69.8,67.1,29.87,SW,225,0.6,0.9,91,0.00,,,0.00,WUHU216HW,2013-06-10 05:03:00,
2013-06-10 01:04:00,69.8,67.1,29.87,SW,225,0.2,0.9,91,0.00,,,0.00,WUHU216HW,2013-06-10 05:04:00,
2013-06-10 01:06:00,69.8,67.1,29.87,SW,225,0.0,0.9,91,0.00,,,0.00,WUHU216HW,2013-06-10 05:06:00,
2013-06-10 01:07:00,69.8,67.1,29.87,SW,225,0.0,0.9,91,0.00,,,0.00,WUHU216HW,2013-06-10 05:07:00,
2013-06-10 01:08:00,69.8,67.1,29.87,SW,225,0.0,0.9,91,0.00,,,0.00,WUHU216HW,2013-06-10 05:08:00,
2013-06-10 01:09:00,69.8,67.1,29.87,SW,225,0.0,0.9,91,0.00,,,0.00,WUHU216HW,2013-06-10 05:09:00,
2013-06-10 01:12:00,69.7,66.9,29.87,WNW,293,0.4,0.4,91,0.00,,,0.00,WUHU216HW,2013-06-10 05:12:00,
2013-06-10 01:13:00,69.7,66.9,29.87,WNW,293,0.0,0.4,91,0.00,,,0.00,WUHU216HW,2013-06-10 05:13:00,
2013-06-10 01:14:00,69.7,66.9,29.87,WNW,293,0.0,0.4,91,0.00,,,0.00,WUHU216HW,2013-06-10 05:14:00,
2013-06-10 01:15:00,69.7,66.9,29.87,West,270,0.2,0.4,91,0.00,,,0.00,WUHU216HW,2013-06-10 05:15:00,
2013-06-10 01:18:00,69.7,66.9,29.87,SE,135,0.6,0.7,91,0.00,,,0.00,WUHU216HW,2013-06-10 05:18:00,
2013-06-10 01:19:00,69.7,66.9,29.87,SE,135,0.4,0.7,91,0.00,,,0.00,WUHU216HW,2013-06-10 05:19:00,
2013-06-10 01:20:00,69.7,66.9,29.87,SE,135,0.0,0.7,91,0.00,,,0.00,WUHU216HW,2013-06-10 05:20:00,
2013-06-10 01:21:00,69.7,66.9,29.87,SE,135,0.0,0.7,91,0.00,,,0.00,WUHU216HW,2013-06-10 05:21:00,
2013-06-10 01:24:00,69.7,66.9,29.87,SSE,158,1.3,1.3,91,0.00,,,0.00,WUHU216HW,2013-06-10 05:24:00,
2013-06-10 01:25:00,69.7,66.9,29.87,SE,135,1.8,1.8,91,0.00,,,0.00,WUHU216HW,2013-06-10 05:25:00,
2013-06-10 01:26:00,69.7,66.9,29.87,SE,135,1.8,1.8,91,0.00,,,0.00,WUHU216HW,2013-06-10 05:26:00,
2013-06-10 01:27:00,69.7,66.9,29.87,SSE,158,3.4,3.4,91,0.00,,,0.00,WUHU216HW,2013-06-10 05:27:00,
2013-06-10 01:31:00,69.7,66.9,29.87,SE,135,2.5,3.4,91,0.00,,,0.00,WUHU216HW,2013-06-10 05:31:00,
2013-06-10 01:32:00,69.7,66.9,29.86,SSE,158,2.5,3.4,91,0.00,,,0.00,WUHU216HW,2013-06-10 05:32:00,
2013-06-10 01:33:00,69.7,66.9,29.87,SSE,165,1.5,3.4,91,0.00,,,0.00,WUHU216HW,2013-06-10 05:33:00,
2013-06-10 01:36:00,69.7,66.9,29.86,ESE,113,1.0,3.4,91,0.00,,,0.00,WUHU216HW,2013-06-10 05:36:00,
2013-06-10 01:37:00,69.7,66.9,29.86,ESE,113,0.7,2.5,91,0.00,,,0.00,WUHU216HW,2013-06-10 05:37:00,
2013-06-10 01:38:00,69.7,66.9,29.86,ESE,113,0.7,2.5,91,0.00,,,0.00,WUHU216HW,2013-06-10 05:38:00,
2013-06-10 01:43:00,69.8,67.1,29.86,SSE,158,0.7,2.2,91,0.00,,,0.00,WUHU216HW,2013-06-10 05:43:00,
2013-06-10 01:44:00,69.7,66.9,29.86,SW,225,0.9,1.8,91,0.00,,,0.00,WUHU216HW,2013-06-10 05:44:00,
2013-06-10 01:46:00,69.8,67.1,29.86,SSW,198,1.1,1.8,91,0.00,,,0.00,WUHU216HW,2013-06-10 05:46:00,
2013-06-10 01:48:00,69.8,67.1,29.86,SSW,203,0.0,1.8,91,0.00,,,0.00,WUHU216HW,2013-06-10 05:48:00,
2013-06-10 01:49:00,69.8,67.1,29.86,SSW,203,0.0,1.8,91,0.00,,,0.00,WUHU216HW,2013-06-10 05:49:00,
2013-06-10 01:50:00,69.8,67.1,29.86,SE,135,0.2,1.8,91,0.00,,,0.00,WUHU216HW,2013-06-10 05:50:00,
2013-06-10 01:52:00,69.8,67.1,29.85,SE,146,1.7,1.8,91,0.00,,,0.00,WUHU216HW,2013-06-10 05:52:00,
2013-06-10 01:54:00,69.7,66.9,29.85,South,180,1.1,1.8,91,0.00,,,0.00,WUHU216HW,2013-06-10 05:54:00,
2013-06-10 01:55:00,69.7,67.2,29.85,SSW,203,1.8,1.8,92,0.00,,,0.00,WUHU216HW,2013-06-10 05:55:00,
2013-06-10 01:56:00,69.7,67.2,29.85,South,186,1.5,1.8,92,0.00,,,0.00,WUHU216HW,2013-06-10 05:56:00,
2013-06-10 01:57:00,69.7,66.9,29.85,SSE,158,2.5,2.5,91,0.00,,,0.00,WUHU216HW,2013-06-10 05:57:00,
2013-06-10 02:00:00,69.7,67.2,29.85,SSW,203,2.4,3.1,92,0.00,,,0.00,WUHU216HW,2013-06-10 06:00:00,
2013-06-10 02:01:00,69.7,67.2,29.85,South,180,2.0,3.1,92,0.00,,,0.00,WUHU216HW,2013-06-10 06:01:00,
2013-06-10 02:02:00,69.7,66.9,29.85,South,188,1.5,3.1,91,0.00,,,0.00,WUHU216HW,2013-06-10 06:02:00,
2013-06-10 02:03:00,69.7,67.2,29.85,SE,135,2.0,3.1,92,0.00,,,0.00,WUHU216HW,2013-06-10 06:03:00,
2013-06-10 02:05:00,69.7,67.2,29.85,SE,146,1.7,3.1,92,0.00,,,0.00,WUHU216HW,2013-06-10 06:05:00,
2013-06-10 02:06:00,69.7,67.2,29.85,SE,146,1.7,3.1,92,0.00,,,0.00,WUHU216HW,2013-06-10 06:06:00,
2013-06-10 02:07:00,69.7,67.2,29.85,SSE,161,1.9,3.1,92,0.00,,,0.00,WUHU216HW,2013-06-10 06:07:00,
2013-06-10 02:08:00,69.7,67.2,29.85,North,0,1.6,3.1,92,0.00,,,0.00,WUHU216HW,2013-06-10 06:08:00,
2013-06-10 02:10:00,69.7,67.2,29.85,SSE,158,4.2,4.5,92,0.00,,,0.00,WUHU216HW,2013-06-10 06:10:00,
2013-06-10 02:11:00,69.7,67.2,29.85,SSE,158,4.2,4.5,92,0.00,,,0.00,WUHU216HW,2013-06-10 06:11:00,
2013-06-10 02:12:00,69.7,67.2,29.85,ESE,113,2.9,4.5,92,0.00,,,0.00,WUHU216HW,2013-06-10 06:12:00,
2013-06-10 02:13:00,69.7,67.2,29.85,ESE,113,2.9,4.5,92,0.00,,,0.00,WUHU216HW,2013-06-10 06:13:00,
2013-06-10 02:14:00,69.7,66.9,29.85,SSW,203,3.1,4.5,91,0.00,,,0.00,WUHU216HW,2013-06-10 06:14:00,
2013-06-10 02:16:00,69.7,66.9,29.85,SW,223,2.9,4.5,91,0.00,,,0.00,WUHU216HW,2013-06-10 06:16:00,
2013-06-10 02:17:00,69.7,66.9,29.85,SSE,158,1.8,4.5,91,0.00,,,0.00,WUHU216HW,2013-06-10 06:17:00,
2013-06-10 02:18:00,69.7,67.2,29.85,SSE,168,1.7,4.5,92,0.00,,,0.00,WUHU216HW,2013-06-10 06:18:00,
2013-06-10 02:19:00,69.8,67.1,29.85,SSE,158,2.5,3.8,91,0.00,,,0.00,WUHU216HW,2013-06-10 06:19:00,
2013-06-10 02:20:00,69.8,67.4,29.85,SSE,158,3.4,3.4,92,0.00,,,0.00,WUHU216HW,2013-06-10 06:20:00,
2013-06-10 02:22:00,69.7,66.9,29.84,SSW,199,2.7,3.8,91,0.00,,,0.00,WUHU216HW,2013-06-10 06:22:00,
2013-06-10 02:23:00,69.7,67.2,29.84,SW,221,1.4,3.8,92,0.00,,,0.00,WUHU216HW,2013-06-10 06:23:00,
2013-06-10 02:25:00,69.7,66.9,29.84,SW,225,2.0,3.8,91,0.00,,,0.00,WUHU216HW,2013-06-10 06:25:00,
2013-06-10 02:28:00,69.7,66.9,29.84,SSE,158,4.0,4.0,91,0.00,,,0.00,WUHU216HW,2013-06-10 06:28:00,
2013-06-10 02:29:00,69.7,66.9,29.84,SSE,158,4.0,4.0,91,0.00,,,0.00,WUHU216HW,2013-06-10 06:29:00,
2013-06-10 02:30:00,69.8,67.1,29.84,SSE,158,4.0,4.0,91,0.00,,,0.00,WUHU216HW,2013-06-10 06:30:00,
2013-06-10 02:32:00,69.8,67.1,29.84,SSE,168,1.5,4.0,91,0.00,,,0.00,WUHU216HW,2013-06-10 06:32:00,
2013-06-10 02:33:00,69.8,67.1,29.84,SSE,168,1.5,4.0,91,0.00,,,0.00,WUHU216HW,2013-06-10 06:33:00,
2013-06-10 02:34:00,69.8,67.1,29.84,SSE,158,2.0,4.0,91,0.00,,,0.00,WUHU216HW,2013-06-10 06:34:00,
2013-06-10 02:35:00,69.8,67.1,29.84,NNW,338,1.8,4.0,91,0.00,,,0.00,WUHU216HW,2013-06-10 06:35:00,
2013-06-10 02:37:00,69.7,66.9,29.84,SSE,158,4.3,4.3,91,0.00,,,0.00,WUHU216HW,2013-06-10 06:37:00,
2013-06-10 02:38:00,69.7,66.9,29.84,SSE,158,4.3,4.3,91,0.00,,,0.00,WUHU216HW,2013-06-10 06:38:00,
2013-06-10 02:39:00,69.7,66.9,29.85,SSE,164,3.0,4.3,91,0.00,,,0.00,WUHU216HW,2013-06-10 06:39:00,
2013-06-10 02:41:00,69.8,67.1,29.84,South,180,2.5,4.3,91,0.00,,,0.00,WUHU216HW,2013-06-10 06:41:00,
2013-06-10 02:42:00,69.7,66.9,29.84,West,270,1.6,4.3,91,0.00,,,0.00,WUHU216HW,2013-06-10 06:42:00,
2013-06-10 02:44:00,69.8,67.1,29.84,SSW,203,4.7,4.7,91,0.00,,,0.00,WUHU216HW,2013-06-10 06:44:00,
2013-06-10 02:46:00,69.8,67.1,29.84,South,180,2.5,4.7,91,0.00,,,0.00,WUHU216HW,2013-06-10 06:46:00,
2013-06-10 02:49:00,69.8,67.1,29.84,South,180,3.4,4.7,91,0.00,,,0.00,WUHU216HW,2013-06-10 06:49:00,
2013-06-10 02:50:00,69.8,67.1,29.84,SSE,158,3.8,4.7,91,0.00,,,0.00,WUHU216HW,2013-06-10 06:50:00,
2013-06-10 02:54:00,69.8,67.1,29.84,South,180,3.1,3.8,91,0.00,,,0.00,WUHU216HW,2013-06-10 06:54:00,
2013-06-10 02:55:00,69.8,67.1,29.84,South,190,2.3,3.8,91,0.00,,,0.00,WUHU216HW,2013-06-10 06:55:00,
2013-06-10 02:59:00,69.8,67.1,29.84,SE,133,2.0,6.9,91,0.00,,,0.00,WUHU216HW,2013-06-10 06:59:00,
2013-06-10 03:00:00,69.8,67.1,29.84,SSE,158,1.8,6.9,91,0.00,,,0.00,WUHU216HW,2013-06-10 07:00:00,
2013-06-10 03:01:00,69.8,67.1,29.84,SSE,158,1.8,6.9,91,0.00,,,0.00,WUHU216HW,2013-06-10 07:01:00,
2013-06-10 03:04:00,69.7,66.9,29.84,SSE,156,3.7,6.9,91,0.00,,,0.00,WUHU216HW,2013-06-10 07:04:00,
2013-06-10 03:05:00,69.7,66.9,29.84,South,180,4.5,6.9,91,0.00,,,0.00,WUHU216HW,2013-06-10 07:05:00,
2013-06-10 03:06:00,69.7,66.9,29.84,South,191,3.0,6.9,91,0.00,,,0.00,WUHU216HW,2013-06-10 07:06:00,
2013-06-10 03:07:00,69.7,66.9,29.84,West,261,1.4,5.1,91,0.00,,,0.00,WUHU216HW,2013-06-10 07:07:00,
2013-06-10 03:11:00,69.7,66.9,29.84,SSE,158,6.0,6.0,91,0.00,,,0.00,WUHU216HW,2013-06-10 07:11:00,
2013-06-10 03:12:00,69.7,66.9,29.84,SSE,158,6.0,6.0,91,0.00,,,0.00,WUHU216HW,2013-06-10 07:12:00,
2013-06-10 03:15:00,69.7,66.9,29.83,SSE,168,2.1,6.0,91,0.00,,,0.00,WUHU216HW,2013-06-10 07:15:00,
2013-06-10 03:16:00,69.7,66.9,29.83,SE,135,2.7,6.0,91,0.00,,,0.00,WUHU216HW,2013-06-10 07:16:00,
2013-06-10 03:17:00,69.7,66.9,29.83,West,270,3.4,6.0,91,0.00,,,0.00,WUHU216HW,2013-06-10 07:17:00,
2013-06-10 03:18:00,69.7,66.9,29.83,West,270,3.4,6.0,91,0.00,,,0.00,WUHU216HW,2013-06-10 07:18:00,
2013-06-10 03:21:00,69.7,66.9,29.83,SW,225,2.5,4.9,91,0.00,,,0.00,WUHU216HW,2013-06-10 07:21:00,
2013-06-10 03:22:00,69.5,66.7,29.83,South,180,3.8,4.9,91,0.00,,,0.00,WUHU216HW,2013-06-10 07:22:00,
2013-06-10 03:23:00,69.5,66.7,29.83,SSE,158,4.0,4.9,91,0.00,,,0.00,WUHU216HW,2013-06-10 07:23:00,
2013-06-10 03:24:00,69.5,66.7,29.83,SSE,158,4.0,4.9,91,0.00,,,0.00,WUHU216HW,2013-06-10 07:24:00,
2013-06-10 03:27:00,69.5,66.7,29.83,South,180,4.9,4.9,91,0.00,,,0.00,WUHU216HW,2013-06-10 07:27:00,
2013-06-10 03:28:00,69.5,66.7,29.83,South,188,3.8,4.9,91,0.00,,,0.00,WUHU216HW,2013-06-10 07:28:00,
2013-06-10 03:30:00,69.5,66.7,29.83,ENE,74,1.8,4.9,91,0.00,,,0.00,WUHU216HW,2013-06-10 07:30:00,
2013-06-10 03:33:00,69.5,66.7,29.83,West,270,1.1,4.9,91,0.00,,,0.00,WUHU216HW,2013-06-10 07:33:00,
2013-06-10 03:34:00,69.5,66.7,29.83,West,270,1.1,4.9,91,0.00,,,0.00,WUHU216HW,2013-06-10 07:34:00,
2013-06-10 03:38:00,69.5,66.7,29.84,WNW,293,0.4,2.7,91,0.00,,,0.00,WUHU216HW,2013-06-10 07:38:00,
2013-06-10 03:39:00,69.5,66.7,29.84,South,180,1.1,2.5,91,0.00,,,0.00,WUHU216HW,2013-06-10 07:39:00,
2013-06-10 03:41:00,69.5,66.7,29.84,SE,135,2.5,2.5,91,0.00,,,0.00,WUHU216HW,2013-06-10 07:41:00,
2013-06-10 03:43:00,69.5,66.7,29.84,SE,135,2.9,2.9,91,0.00,,,0.00,WUHU216HW,2013-06-10 07:43:00,
2013-06-10 03:44:00,69.3,66.5,29.83,SE,144,2.5,2.9,91,0.00,,,0.00,WUHU216HW,2013-06-10 07:44:00,
2013-06-10 03:45:00,69.5,66.7,29.83,South,178,3.3,4.0,91,0.00,,,0.00,WUHU216HW,2013-06-10 07:45:00,
2013-06-10 03:47:00,69.3,66.5,29.83,SE,145,2.3,4.0,91,0.00,,,0.00,WUHU216HW,2013-06-10 07:47:00,
2013-06-10 03:49:00,69.3,66.5,29.83,SSE,158,4.5,4.5,91,0.00,,,0.00,WUHU216HW,2013-06-10 07:49:00,
2013-06-10 03:50:00,69.3,66.5,29.83,SSE,158,3.5,4.5,91,0.00,,,0.00,WUHU216HW,2013-06-10 07:50:00,
2013-06-10 03:51:00,69.3,66.5,29.83,South,180,2.9,4.5,91,0.00,,,0.00,WUHU216HW,2013-06-10 07:51:00,
2013-06-10 03:52:00,69.3,66.5,29.83,SSW,207,2.5,4.5,91,0.00,,,0.00,WUHU216HW,2013-06-10 07:52:00,
2013-06-10 03:54:00,69.3,66.5,29.83,SE,135,2.5,4.5,91,0.00,,,0.00,WUHU216HW,2013-06-10 07:54:00,
2013-06-10 03:56:00,69.1,66.3,29.83,South,180,2.7,4.5,91,0.00,,,0.00,WUHU216HW,2013-06-10 07:56:00,
2013-06-10 03:57:00,69.1,66.3,29.83,South,169,2.6,4.5,91,0.00,,,0.00,WUHU216HW,2013-06-10 07:57:00,
2013-06-10 03:59:00,69.1,66.3,29.83,South,175,3.0,3.4,91,0.00,,,0.00,WUHU216HW,2013-06-10 07:59:00,
2013-06-10 04:01:00,69.1,66.3,29.83,West,270,4.0,4.0,91,0.00,,,0.00,WUHU216HW,2013-06-10 08:01:00,
2013-06-10 04:02:00,69.1,66.3,29.83,WSW,243,3.0,4.0,91,0.00,,,0.00,WUHU216HW,2013-06-10 08:02:00,
2013-06-10 04:03:00,69.1,66.3,29.83,WSW,243,3.0,4.0,91,0.00,,,0.00,WUHU216HW,2013-06-10 08:03:00,
2013-06-10 04:04:00,69.1,66.3,29.82,SSE,158,2.5,4.0,91,0.00,,,0.00,WUHU216HW,2013-06-10 08:04:00,
2013-06-10 04:06:00,69.1,66.3,29.82,SSE,158,4.0,4.0,91,0.00,,,0.00,WUHU216HW,2013-06-10 08:06:00,
2013-06-10 04:07:00,69.1,66.3,29.82,SSE,158,2.5,4.0,91,0.00,,,0.00,WUHU216HW,2013-06-10 08:07:00,
2013-06-10 04:08:00,69.1,66.3,29.82,SE,135,1.3,4.0,91,0.00,,,0.00,WUHU216HW,2013-06-10 08:08:00,
2013-06-10 04:10:00,69.1,66.3,29.82,SSW,193,0.9,4.0,91,0.00,,,0.00,WUHU216HW,2013-06-10 08:10:00,
2013-06-10 04:12:00,69.1,66.3,29.82,South,180,2.7,4.0,91,0.00,,,0.00,WUHU216HW,2013-06-10 08:12:00,
2013-06-10 04:13:00,69.1,66.3,29.82,SE,135,1.8,4.0,91,0.00,,,0.00,WUHU216HW,2013-06-10 08:13:00,
2013-06-10 04:14:00,68.9,66.2,29.83,South,180,4.7,4.7,91,0.00,,,0.00,WUHU216HW,2013-06-10 08:14:00,
2013-06-10 04:16:00,68.9,66.2,29.82,South,172,3.6,4.7,91,0.00,,,0.00,WUHU216HW,2013-06-10 08:16:00,
2013-06-10 04:17:00,68.9,66.2,29.82,SE,140,2.6,4.7,91,0.00,,,0.00,WUHU216HW,2013-06-10 08:17:00,
2013-06-10 04:19:00,68.9,66.2,29.82,SSW,203,3.4,4.7,91,0.00,,,0.00,WUHU216HW,2013-06-10 08:19:00,
2013-06-10 04:20:00,68.9,66.2,29.82,SE,135,4.7,4.7,91,0.00,,,0.00,WUHU216HW,2013-06-10 08:20:00,
2013-06-10 04:22:00,68.9,66.2,29.82,SE,135,3.1,4.7,91,0.00,,,0.00,WUHU216HW,2013-06-10 08:22:00,
2013-06-10 04:23:00,68.9,66.2,29.82,SSW,203,3.4,4.7,91,0.00,,,0.00,WUHU216HW,2013-06-10 08:23:00,
2013-06-10 04:25:00,69.1,66.3,29.82,SSE,158,1.8,4.7,91,0.00,,,0.00,WUHU216HW,2013-06-10 08:25:00,
2013-06-10 04:26:00,69.1,66.3,29.82,South,180,2.3,4.7,91,0.00,,,0.00,WUHU216HW,2013-06-10 08:26:00,
2013-06-10 04:27:00,69.1,66.3,29.82,South,180,2.3,4.7,91,0.00,,,0.00,WUHU216HW,2013-06-10 08:27:00,
2013-06-10 04:30:00,69.1,66.3,29.82,South,182,1.8,3.4,91,0.00,,,0.00,WUHU216HW,2013-06-10 08:30:00,
2013-06-10 04:31:00,69.1,66.3,29.82,WNW,293,1.1,3.4,91,0.00,,,0.00,WUHU216HW,2013-06-10 08:31:00,
2013-06-10 04:32:00,69.1,66.3,29.82,SSE,152,4.3,6.3,91,0.00,,,0.00,WUHU216HW,2013-06-10 08:32:00,
2013-06-10 04:37:00,69.1,66.3,29.82,SSE,158,2.0,6.3,91,0.00,,,0.00,WUHU216HW,2013-06-10 08:37:00,
2013-06-10 04:38:00,69.1,66.3,29.82,SSE,158,3.8,6.3,91,0.00,,,0.00,WUHU216HW,2013-06-10 08:38:00,
2013-06-10 04:42:00,69.1,66.3,29.82,SSW,203,1.8,3.8,91,0.00,,,0.00,WUHU216HW,2013-06-10 08:42:00,
2013-06-10 04:43:00,69.1,66.3,29.82,SSW,203,1.8,3.8,91,0.00,,,0.00,WUHU216HW,2013-06-10 08:43:00,
2013-06-10 04:45:00,69.1,66.3,29.82,SSE,158,3.1,3.8,91,0.00,,,0.00,WUHU216HW,2013-06-10 08:45:00,
2013-06-10 04:48:00,69.1,66.3,29.82,SSE,166,1.9,3.1,91,0.00,,,0.00,WUHU216HW,2013-06-10 08:48:00,
2013-06-10 04:49:00,69.1,66.3,29.82,SE,135,2.5,3.1,91,0.00,,,0.00,WUHU216HW,2013-06-10 08:49:00,
2013-06-10 04:50:00,69.1,66.3,29.82,SSE,158,2.7,3.1,91,0.00,,,0.00,WUHU216HW,2013-06-10 08:50:00,
2013-06-10 04:54:00,69.1,66.3,29.82,SE,142,1.5,2.9,91,0.00,,,0.00,WUHU216HW,2013-06-10 08:54:00,
2013-06-10 04:55:00,69.1,66.3,29.82,SSE,158,0.9,2.9,91,0.00,,,0.00,WUHU216HW,2013-06-10 08:55:00,
2013-06-10 04:56:00,69.1,66.3,29.82,South,180,2.0,2.7,91,0.00,,,0.00,WUHU216HW,2013-06-10 08:56:00,
2013-06-10 05:00:00,69.1,66.3,29.82,South,170,2.7,3.4,91,0.00,,,0.00,WUHU216HW,2013-06-10 09:00:00,
2013-06-10 05:02:00,69.1,66.3,29.82,SSW,203,1.9,3.4,91,0.00,,,0.00,WUHU216HW,2013-06-10 09:02:00,
2013-06-10 05:05:00,69.1,66.3,29.82,SSE,152,2.2,3.4,91,0.00,,,0.00,WUHU216HW,2013-06-10 09:05:00,
2013-06-10 05:06:00,69.1,66.3,29.82,SSE,158,1.8,3.4,91,0.00,,,0.00,WUHU216HW,2013-06-10 09:06:00,
2013-06-10 05:07:00,69.1,66.3,29.82,SSE,158,1.8,3.4,91,0.00,,,0.00,WUHU216HW,2013-06-10 09:07:00,
2013-06-10 05:08:00,69.1,66.3,29.82,SSE,158,1.8,3.4,91,0.00,,,0.00,WUHU216HW,2013-06-10 09:08:00,
2013-06-10 05:09:00,69.1,66.3,29.82,SSW,203,3.4,3.4,91,0.00,,,0.00,WUHU216HW,2013-06-10 09:09:00,
2013-06-10 05:10:00,69.1,66.3,29.82,South,175,2.3,3.4,91,0.00,,,0.00,WUHU216HW,2013-06-10 09:10:00,
2013-06-10 05:11:00,69.1,66.3,29.82,SE,135,3.4,3.4,91,0.00,,,0.00,WUHU216HW,2013-06-10 09:11:00,
2013-06-10 05:12:00,69.1,66.3,29.82,SE,135,2.6,3.4,91,0.00,,,0.00,WUHU216HW,2013-06-10 09:12:00,
2013-06-10 05:13:00,69.1,66.3,29.82,SW,225,2.2,3.4,91,0.00,,,0.00,WUHU216HW,2013-06-10 09:13:00,
2013-06-10 05:15:00,69.1,66.3,29.81,SE,135,2.0,3.4,91,0.00,,,0.00,WUHU216HW,2013-06-10 09:15:00,
2013-06-10 05:16:00,69.1,66.3,29.81,ESE,113,2.5,3.4,91,0.00,,,0.00,WUHU216HW,2013-06-10 09:16:00,
2013-06-10 05:18:00,69.1,66.3,29.81,ESE,116,1.5,3.4,91,0.00,,,0.00,WUHU216HW,2013-06-10 09:18:00,
2013-06-10 05:20:00,69.1,66.3,29.81,SSE,158,2.2,3.4,91,0.00,,,0.00,WUHU216HW,2013-06-10 09:20:00,
2013-06-10 05:21:00,69.1,66.3,29.81,SE,137,2.0,2.5,91,0.00,,,0.00,WUHU216HW,2013-06-10 09:21:00,
2013-06-10 05:23:00,69.1,66.3,29.81,SE,135,3.4,3.4,91,0.00,,,0.00,WUHU216HW,2013-06-10 09:23:00,
2013-06-10 05:24:00,69.1,66.3,29.81,SE,135,3.4,3.4,91,0.00,,,0.00,WUHU216HW,2013-06-10 09:24:00,
2013-06-10 05:26:00,69.1,66.3,29.81,ESE,113,1.5,3.4,91,0.00,,,0.00,WUHU216HW,2013-06-10 09:26:00,
2013-06-10 05:27:00,69.1,66.3,29.81,SSE,157,2.6,3.4,91,0.00,,,0.00,WUHU216HW,2013-06-10 09:27:00,
2013-06-10 05:28:00,69.1,66.3,29.81,SSE,158,1.8,3.4,91,0.00,,,0.00,WUHU216HW,2013-06-10 09:28:00,
2013-06-10 05:29:00,69.1,66.3,29.81,SSE,158,1.5,3.4,91,0.00,,,0.00,WUHU216HW,2013-06-10 09:29:00,
2013-06-10 05:31:00,69.1,66.3,29.81,SSE,158,2.5,3.4,91,0.00,,,0.00,WUHU216HW,2013-06-10 09:31:00,
2013-06-10 05:32:00,69.1,66.3,29.81,SE,135,4.0,4.0,91,0.00,,,0.00,WUHU216HW,2013-06-10 09:32:00,
2013-06-10 05:33:00,69.1,66.3,29.81,SE,140,2.5,4.0,91,0.00,,,0.00,WUHU216HW,2013-06-10 09:33:00,
2013-06-10 05:35:00,69.1,66.3,29.82,SSW,203,1.3,4.0,91,0.00,,,0.00,WUHU216HW,2013-06-10 09:35:00,
2013-06-10 05:36:00,69.3,66.5,29.82,WNW,293,0.9,4.0,91,0.00,,,0.00,WUHU216HW,2013-06-10 09:36:00,
2013-06-10 05:37:00,69.1,66.3,29.82,SSW,203,1.6,4.0,91,0.00,,,0.00,WUHU216HW,2013-06-10 09:37:00,
2013-06-10 05:38:00,69.1,66.3,29.82,South,173,1.5,4.0,91,0.00,,,0.00,WUHU216HW,2013-06-10 09:38:00,
2013-06-10 05:39:00,69.1,66.3,29.82,South,173,1.5,4.0,91,0.00,,,0.00,WUHU216HW,2013-06-10 09:39:00,
2013-06-10 05:40:00,69.1,66.3,29.82,South,186,2.0,4.0,91,0.00,,,0.00,WUHU216HW,2013-06-10 09:40:00,
2013-06-10 05:42:00,69.1,66.3,29.82,SSE,158,2.6,3.6,91,0.00,,,0.00,WUHU216HW,2013-06-10 09:42:00,
2013-06-10 05:43:00,69.1,66.3,29.82,SSE,158,2.6,3.6,91,0.00,,,0.00,WUHU216HW,2013-06-10 09:43:00,
2013-06-10 05:44:00,69.1,66.3,29.82,South,180,2.9,3.6,91,0.00,,,0.00,WUHU216HW,2013-06-10 09:44:00,
2013-06-10 05:46:00,69.3,66.2,29.82,South,180,3.1,3.6,90,0.00,,,0.00,WUHU216HW,2013-06-10 09:46:00,
2013-06-10 05:47:00,69.1,66.3,29.82,South,182,2.5,3.6,91,0.00,,,0.00,WUHU216HW,2013-06-10 09:47:00,
2013-06-10 05:49:00,69.3,66.5,29.82,South,170,1.7,3.6,91,0.00,,,0.00,WUHU216HW,2013-06-10 09:49:00,
2013-06-10 05:50:00,69.3,66.5,29.82,South,170,1.7,3.6,91,0.00,,,0.00,WUHU216HW,2013-06-10 09:50:00,
2013-06-10 05:52:00,69.3,66.5,29.82,West,270,2.5,3.1,91,0.00,,,0.00,WUHU216HW,2013-06-10 09:52:00,
2013-06-10 05:54:00,69.3,66.5,29.82,SE,135,2.7,3.1,91,0.00,,,0.00,WUHU216HW,2013-06-10 09:54:00,
2013-06-10 05:55:00,69.3,66.5,29.82,SE,135,2.7,3.1,91,0.00,,,0.00,WUHU216HW,2013-06-10 09:55:00,
2013-06-10 05:58:00,69.1,66.1,29.82,SE,135,1.1,2.7,90,0.00,,,0.00,WUHU216HW,2013-06-10 09:58:00,
2013-06-10 05:59:00,69.1,66.3,29.82,SSW,211,5.0,6.0,91,0.00,,,0.00,WUHU216HW,2013-06-10 09:59:00,
2013-06-10 06:00:00,69.1,66.3,29.82,SSW,207,3.7,6.0,91,0.00,,,0.00,WUHU216HW,2013-06-10 10:00:00,
2013-06-10 06:03:00,69.3,66.5,29.82,SSE,158,5.4,6.0,91,0.00,,,0.00,WUHU216HW,2013-06-10 10:03:00,
2013-06-10 06:04:00,69.3,66.5,29.82,SSE,168,4.9,6.0,91,0.00,,,0.00,WUHU216HW,2013-06-10 10:04:00,
2013-06-10 06:05:00,69.3,66.5,29.82,South,172,3.5,6.0,91,0.01,,,0.01,WUHU216HW,2013-06-10 10:05:00,
2013-06-10 06:09:00,69.3,66.2,29.82,South,170,1.8,5.4,90,0.01,,,0.01,WUHU216HW,2013-06-10 10:09:00,
2013-06-10 06:10:00,69.3,66.2,29.82,South,180,4.3,5.4,90,0.01,,,0.01,WUHU216HW,2013-06-10 10:10:00,
2013-06-10 06:12:00,69.5,66.4,29.82,SSW,203,4.7,5.4,90,0.01,,,0.01,WUHU216HW,2013-06-10 10:12:00,
2013-06-10 06:14:00,69.5,66.4,29.82,SSE,147,2.9,4.7,90,0.01,,,0.01,WUHU216HW,2013-06-10 10:14:00,
2013-06-10 06:16:00,69.5,66.4,29.82,East,90,4.3,4.7,90,0.01,,,0.01,WUHU216HW,2013-06-10 10:16:00,
2013-06-10 06:17:00,69.5,66.4,29.82,East,90,4.3,4.7,90,0.01,,,0.01,WUHU216HW,2013-06-10 10:17:00,
2013-06-10 06:18:00,69.5,66.4,29.82,SE,136,3.9,4.7,90,0.01,,,0.01,WUHU216HW,2013-06-10 10:18:00,
2013-06-10 06:20:00,69.5,66.4,29.82,SSE,158,5.6,5.6,90,0.01,,,0.01,WUHU216HW,2013-06-10 10:20:00,
2013-06-10 06:21:00,69.5,66.4,29.82,SSE,158,5.6,5.6,90,0.01,,,0.01,WUHU216HW,2013-06-10 10:21:00,
2013-06-10 06:22:00,69.5,66.4,29.82,SSW,203,3.4,5.6,90,0.01,,,0.01,WUHU216HW,2013-06-10 10:22:00,
2013-06-10 06:23:00,69.5,66.4,29.82,SSW,203,3.4,5.6,90,0.01,,,0.01,WUHU216HW,2013-06-10 10:23:00,
2013-06-10 06:25:00,69.5,66.4,29.82,South,170,2.3,5.6,90,0.01,,,0.01,WUHU216HW,2013-06-10 10:25:00,
2013-06-10 06:27:00,69.5,66.4,29.82,East,90,2.5,5.6,90,0.01,,,0.01,WUHU216HW,2013-06-10 10:27:00,
2013-06-10 06:28:00,69.3,66.2,29.82,SSW,203,4.7,5.6,90,0.01,,,0.01,WUHU216HW,2013-06-10 10:28:00,
2013-06-10 06:30:00,69.3,66.2,29.82,SE,142,2.6,4.7,90,0.01,,,0.01,WUHU216HW,2013-06-10 10:30:00,
2013-06-10 06:32:00,69.3,66.2,29.82,SSE,147,4.7,4.9,90,0.01,,,0.01,WUHU216HW,2013-06-10 10:32:00,
2013-06-10 06:33:00,69.3,66.2,29.82,ESE,110,3.3,4.9,90,0.01,,,0.01,WUHU216HW,2013-06-10 10:33:00,
2013-06-10 06:34:00,69.3,66.2,29.82,ESE,110,3.3,4.9,90,0.01,,,0.01,WUHU216HW,2013-06-10 10:34:00,
2013-06-10 06:37:00,69.3,66.2,29.83,SE,132,2.8,4.9,90,0.01,,,0.01,WUHU216HW,2013-06-10 10:37:00,
2013-06-10 06:39:00,69.5,66.4,29.82,SSE,158,3.6,4.9,90,0.01,,,0.01,WUHU216HW,2013-06-10 10:39:00,
2013-06-10 06:40:00,69.5,66.4,29.83,SSE,163,2.4,4.9,90,0.01,,,0.01,WUHU216HW,2013-06-10 10:40:00,
2013-06-10 06:42:00,69.5,66.4,29.83,South,188,2.7,3.6,90,0.01,,,0.01,WUHU216HW,2013-06-10 10:42:00,
2013-06-10 06:43:00,69.5,66.4,29.83,SSW,203,4.5,4.5,90,0.01,,,0.01,WUHU216HW,2013-06-10 10:43:00,
2013-06-10 06:45:00,69.5,66.4,29.83,WSW,248,4.0,4.5,90,0.01,,,0.01,WUHU216HW,2013-06-10 10:45:00,
2013-06-10 06:46:00,69.5,66.4,29.83,WSW,248,4.0,4.5,90,0.01,,,0.01,WUHU216HW,2013-06-10 10:46:00,
2013-06-10 06:47:00,69.5,66.4,29.83,SSE,158,3.4,4.5,90,0.01,,,0.01,WUHU216HW,2013-06-10 10:47:00,
2013-06-10 06:49:00,69.5,66.4,29.83,SSW,203,4.5,4.5,90,0.01,,,0.01,WUHU216HW,2013-06-10 10:49:00,
2013-06-10 06:50:00,69.5,66.4,29.83,SSE,158,4.7,5.1,90,0.01,,,0.01,WUHU216HW,2013-06-10 10:50:00,
2013-06-10 06:51:00,69.5,66.4,29.83,SE,139,3.7,5.1,90,0.01,,,0.01,WUHU216HW,2013-06-10 10:51:00,
2013-06-10 06:53:00,69.5,66.4,29.83,SE,137,3.0,5.1,90,0.01,,,0.01,WUHU216HW,2013-06-10 10:53:00,
2013-06-10 06:55:00,69.5,66.4,29.83,SW,225,5.1,5.1,90,0.01,,,0.01,WUHU216HW,2013-06-10 10:55:00,
2013-06-10 06:56:00,69.5,66.4,29.83,SW,225,5.1,5.1,90,0.01,,,0.01,WUHU216HW,2013-06-10 10:56:00,
2013-06-10 06:58:00,69.5,66.4,29.82,SW,225,4.3,5.1,90,0.01,,,0.01,WUHU216HW,2013-06-10 10:58:00,
2013-06-10 07:00:00,69.5,66.4,29.82,SE,135,6.0,6.0,90,0.01,,,0.01,WUHU216HW,2013-06-10 11:00:00,
2013-06-10 07:01:00,69.5,66.4,29.82,SSE,166,4.3,6.0,90,0.01,,,0.01,WUHU216HW,2013-06-10 11:01:00,
2013-06-10 07:02:00,69.7,66.6,29.82,SSE,158,3.1,6.0,90,0.01,,,0.01,WUHU216HW,2013-06-10 11:02:00,
2013-06-10 07:03:00,69.7,66.6,29.82,South,180,5.4,6.0,90,0.01,,,0.01,WUHU216HW,2013-06-10 11:03:00,
2013-06-10 07:04:00,69.7,66.6,29.82,SSE,163,4.4,6.0,90,0.00,,,0.01,WUHU216HW,2013-06-10 11:04:00,
2013-06-10 07:06:00,69.7,66.6,29.82,South,180,4.7,6.0,90,0.00,,,0.01,WUHU216HW,2013-06-10 11:06:00,
2013-06-10 07:07:00,69.7,66.6,29.82,SSE,167,3.3,6.0,90,0.00,,,0.01,WUHU216HW,2013-06-10 11:07:00,
2013-06-10 07:09:00,69.8,66.8,29.83,South,180,6.9,6.9,90,0.00,,,0.01,WUHU216HW,2013-06-10 11:09:00,
2013-06-10 07:11:00,69.8,66.8,29.83,WSW,248,3.1,6.9,90,0.00,,,0.01,WUHU216HW,2013-06-10 11:11:00,
2013-06-10 07:12:00,69.8,66.8,29.83,SSE,158,3.6,6.9,90,0.00,,,0.01,WUHU216HW,2013-06-10 11:12:00,
2013-06-10 07:13:00,69.7,66.6,29.83,SE,136,3.5,6.9,90,0.00,,,0.01,WUHU216HW,2013-06-10 11:13:00,
2013-06-10 07:14:00,69.8,66.8,29.83,ESE,122,3.0,6.9,90,0.00,,,0.01,WUHU216HW,2013-06-10 11:14:00,
2013-06-10 07:16:00,69.8,66.8,29.83,South,180,3.6,6.9,90,0.00,,,0.01,WUHU216HW,2013-06-10 11:16:00,
2013-06-10 07:17:00,69.8,66.8,29.83,South,180,3.5,6.9,90,0.00,,,0.01,WUHU216HW,2013-06-10 11:17:00,
2013-06-10 07:18:00,69.8,66.8,29.83,SW,218,3.1,6.9,90,0.00,,,0.01,WUHU216HW,2013-06-10 11:18:00,
2013-06-10 07:20:00,69.8,66.8,29.83,SSW,203,5.8,5.8,90,0.00,,,0.01,WUHU216HW,2013-06-10 11:20:00,
2013-06-10 07:22:00,69.8,66.8,29.83,SW,232,5.3,5.8,90,0.00,,,0.01,WUHU216HW,2013-06-10 11:22:00,
2013-06-10 07:23:00,69.8,66.8,29.84,West,270,2.0,5.8,90,0.00,,,0.01,WUHU216HW,2013-06-10 11:23:00,
2013-06-10 07:24:00,69.8,66.8,29.84,SW,218,1.9,5.8,90,0.00,,,0.01,WUHU216HW,2013-06-10 11:24:00,
2013-06-10 07:27:00,69.8,66.8,29.84,SSW,203,3.4,5.8,90,0.00,,,0.01,WUHU216HW,2013-06-10 11:27:00,
2013-06-10 07:29:00,69.8,66.8,29.84,South,175,5.1,5.8,90,0.00,,,0.01,WUHU216HW,2013-06-10 11:29:00,
2013-06-10 07:32:00,69.8,66.8,29.84,SSW,203,5.4,5.6,90,0.00,,,0.01,WUHU216HW,2013-06-10 11:32:00,
2013-06-10 07:33:00,69.8,66.8,29.84,SSE,150,4.9,5.6,90,0.00,,,0.01,WUHU216HW,2013-06-10 11:33:00,
2013-06-10 07:34:00,69.8,66.8,29.84,ESE,102,3.4,5.6,90,0.00,,,0.01,WUHU216HW,2013-06-10 11:34:00,
2013-06-10 07:35:00,69.8,66.8,29.84,South,180,8.3,8.3,90,0.00,,,0.01,WUHU216HW,2013-06-10 11:35:00,
2013-06-10 07:38:00,69.7,66.6,29.84,South,180,4.3,8.3,90,0.00,,,0.01,WUHU216HW,2013-06-10 11:38:00,
2013-06-10 07:39:00,69.7,66.6,29.84,South,180,4.7,8.3,90,0.00,,,0.01,WUHU216HW,2013-06-10 11:39:00,
2013-06-10 07:40:00,69.7,66.6,29.84,South,174,3.3,8.3,90,0.00,,,0.01,WUHU216HW,2013-06-10 11:40:00,
2013-06-10 07:44:00,69.7,66.6,29.84,South,178,3.8,8.3,90,0.00,,,0.01,WUHU216HW,2013-06-10 11:44:00,
2013-06-10 07:45:00,69.7,66.6,29.84,WSW,248,6.0,6.0,90,0.00,,,0.01,WUHU216HW,2013-06-10 11:45:00,
2013-06-10 07:47:00,69.8,66.8,29.84,SW,225,5.1,6.0,90,0.00,,,0.01,WUHU216HW,2013-06-10 11:47:00,
2013-06-10 07:49:00,69.8,66.8,29.84,WSW,240,3.0,6.0,90,0.00,,,0.01,WUHU216HW,2013-06-10 11:49:00,
2013-06-10 07:50:00,69.8,66.8,29.84,WSW,240,3.0,6.0,90,0.00,,,0.01,WUHU216HW,2013-06-10 11:50:00,
2013-06-10 07:51:00,69.8,66.8,29.85,East,90,2.5,6.0,90,0.00,,,0.01,WUHU216HW,2013-06-10 11:51:00,
2013-06-10 07:52:00,70.0,67.0,29.85,South,180,4.7,6.0,90,0.00,,,0.01,WUHU216HW,2013-06-10 11:52:00,
2013-06-10 07:53:00,70.0,67.0,29.85,South,170,4.3,6.0,90,0.00,,,0.01,WUHU216HW,2013-06-10 11:53:00,
2013-06-10 07:55:00,70.0,67.0,29.84,South,191,3.2,6.0,90,0.00,,,0.01,WUHU216HW,2013-06-10 11:55:00,
2013-06-10 07:56:00,70.0,67.0,29.84,SW,220,2.2,5.1,90,0.00,,,0.01,WUHU216HW,2013-06-10 11:56:00,
2013-06-10 07:57:00,70.0,67.0,29.85,SSW,199,3.0,4.7,90,0.00,,,0.01,WUHU216HW,2013-06-10 11:57:00,
2013-06-10 07:58:00,70.0,66.6,29.85,SSE,158,2.9,4.7,89,0.00,,,0.01,WUHU216HW,2013-06-10 11:58:00,
2013-06-10 08:00:00,70.0,66.6,29.85,SSE,158,3.6,4.7,89,0.00,,,0.01,WUHU216HW,2013-06-10 12:00:00,
2013-06-10 08:02:00,70.0,66.6,29.85,SW,215,3.5,6.0,89,0.00,,,0.01,WUHU216HW,2013-06-10 12:02:00,
2013-06-10 08:03:00,70.0,66.6,29.85,South,180,2.5,6.0,89,0.00,,,0.01,WUHU216HW,2013-06-10 12:03:00,
2013-06-10 08:04:00,70.0,66.6,29.85,South,180,2.0,6.0,89,0.00,,,0.01,WUHU216HW,2013-06-10 12:04:00,
2013-06-10 08:06:00,69.8,66.4,29.85,SSE,158,3.4,6.0,89,0.00,,,0.01,WUHU216HW,2013-06-10 12:06:00,
2013-06-10 08:07:00,69.8,66.4,29.85,SE,135,2.6,6.0,89,0.00,,,0.01,WUHU216HW,2013-06-10 12:07:00,
2013-06-10 08:08:00,69.8,66.4,29.85,SE,135,2.9,6.0,89,0.00,,,0.01,WUHU216HW,2013-06-10 12:08:00,
2013-06-10 08:09:00,69.8,66.4,29.85,SSW,203,4.7,6.0,89,0.00,,,0.01,WUHU216HW,2013-06-10 12:09:00,
2013-06-10 08:12:00,69.8,66.4,29.85,SSW,200,4.2,4.7,89,0.00,,,0.01,WUHU216HW,2013-06-10 12:12:00,
2013-06-10 08:13:00,69.8,66.4,29.85,SSW,202,2.7,4.7,89,0.00,,,0.01,WUHU216HW,2013-06-10 12:13:00,
2013-06-10 08:14:00,69.8,66.4,29.85,SSE,158,2.9,4.7,89,0.00,,,0.01,WUHU216HW,2013-06-10 12:14:00,
2013-06-10 08:15:00,69.7,66.2,29.85,South,180,2.9,4.7,89,0.00,,,0.01,WUHU216HW,2013-06-10 12:15:00,
2013-06-10 08:17:00,69.7,66.2,29.85,SSE,148,3.1,4.7,89,0.00,,,0.01,WUHU216HW,2013-06-10 12:17:00,
2013-06-10 08:18:00,69.7,66.2,29.85,SSE,148,3.1,4.7,89,0.00,,,0.01,WUHU216HW,2013-06-10 12:18:00,
2013-06-10 08:20:00,69.7,66.2,29.85,SSE,147,2.3,4.7,89,0.00,,,0.01,WUHU216HW,2013-06-10 12:20:00,
2013-06-10 08:21:00,69.5,66.1,29.85,SSW,203,2.7,4.7,89,0.00,,,0.01,WUHU216HW,2013-06-10 12:21:00,
2013-06-10 08:23:00,69.5,66.1,29.85,South,187,1.7,4.7,89,0.00,,,0.01,WUHU216HW,2013-06-10 12:23:00,
2013-06-10 08:24:00,69.5,66.1,29.85,South,170,0.9,4.7,89,0.00,,,0.01,WUHU216HW,2013-06-10 12:24:00,
2013-06-10 08:25:00,69.5,66.1,29.85,SW,225,1.1,4.7,89,0.00,,,0.01,WUHU216HW,2013-06-10 12:25:00,
2013-06-10 08:27:00,69.5,66.1,29.85,ESE,113,3.8,4.7,89,0.00,,,0.01,WUHU216HW,2013-06-10 12:27:00,
2013-06-10 08:29:00,69.5,66.4,29.85,WSW,248,0.7,3.8,90,0.00,,,0.01,WUHU216HW,2013-06-10 12:29:00,
2013-06-10 08:30:00,69.5,66.4,29.86,WSW,248,0.6,3.8,90,0.00,,,0.01,WUHU216HW,2013-06-10 12:30:00,
2013-06-10 08:32:00,69.5,66.4,29.85,South,180,1.1,3.8,90,0.03,,,0.04,WUHU216HW,2013-06-10 12:32:00,
2013-06-10 08:35:00,69.5,66.4,29.85,WSW,238,1.5,3.8,90,0.07,,,0.08,WUHU216HW,2013-06-10 12:35:00,
2013-06-10 08:36:00,69.5,66.4,29.85,South,180,0.4,2.5,90,0.08,,,0.09,WUHU216HW,2013-06-10 12:36:00,
2013-06-10 08:37:00,69.5,66.4,29.84,South,180,0.0,1.8,90,0.08,,,0.09,WUHU216HW,2013-06-10 12:37:00,
2013-06-10 08:40:00,69.3,66.2,29.85,NE,45,0.0,1.8,90,0.08,,,0.09,WUHU216HW,2013-06-10 12:40:00,
2013-06-10 08:42:00,69.5,66.4,29.85,ENE,68,0.2,1.8,90,0.08,,,0.09,WUHU216HW,2013-06-10 12:42:00,
2013-06-10 08:43:00,69.5,66.4,29.85,ENE,68,0.7,1.3,90,0.08,,,0.09,WUHU216HW,2013-06-10 12:43:00,
2013-06-10 08:45:00,69.5,66.4,29.85,ESE,113,3.1,3.1,90,0.08,,,0.09,WUHU216HW,2013-06-10 12:45:00,
2013-06-10 08:47:00,69.7,66.6,29.85,ESE,113,1.6,3.1,90,0.09,,,0.10,WUHU216HW,2013-06-10 12:47:00,
2013-06-10 08:48:00,69.8,66.8,29.85,SE,139,1.4,3.1,90,0.09,,,0.10,WUHU216HW,2013-06-10 12:48:00,
2013-06-10 08:51:00,70.2,67.1,29.85,SE,135,1.6,3.1,90,0.09,,,0.10,WUHU216HW,2013-06-10 12:51:00,
2013-06-10 08:53:00,70.2,67.1,29.85,ESE,113,1.1,3.1,90,0.09,,,0.10,WUHU216HW,2013-06-10 12:53:00,
2013-06-10 08:54:00,70.6,67.5,29.85,ESE,113,2.2,3.1,90,0.09,,,0.10,WUHU216HW,2013-06-10 12:54:00,
2013-06-10 08:55:00,70.6,67.5,29.85,ESE,114,1.2,3.1,90,0.09,,,0.10,WUHU216HW,2013-06-10 12:55:00,
2013-06-10 08:57:00,70.7,67.7,29.85,South,181,1.8,2.5,90,0.09,,,0.10,WUHU216HW,2013-06-10 12:57:00,
2013-06-10 08:58:00,70.7,67.7,29.85,SSW,203,1.8,2.5,90,0.09,,,0.10,WUHU216HW,2013-06-10 12:58:00,
2013-06-10 08:59:00,70.9,67.9,29.85,SSW,201,1.3,2.5,90,0.09,,,0.10,WUHU216HW,2013-06-10 12:59:00,
2013-06-10 09:00:00,70.9,67.9,29.86,ESE,113,1.3,2.5,90,0.09,,,0.10,WUHU216HW,2013-06-10 13:00:00,
2013-06-10 09:02:00,70.9,67.9,29.86,SW,216,3.5,4.0,90,0.09,,,0.10,WUHU216HW,2013-06-10 13:02:00,
2013-06-10 09:04:00,70.9,67.9,29.86,SE,135,2.5,4.0,90,0.09,,,0.10,WUHU216HW,2013-06-10 13:04:00,
2013-06-10 09:05:00,70.9,67.9,29.86,SSE,154,1.8,4.0,90,0.10,,,0.11,WUHU216HW,2013-06-10 13:05:00,
2013-06-10 09:08:00,70.7,67.7,29.86,SSE,166,2.5,4.3,90,0.10,,,0.11,WUHU216HW,2013-06-10 13:08:00,
2013-06-10 09:09:00,70.7,67.7,29.86,SSW,200,0.6,4.3,90,0.10,,,0.11,WUHU216HW,2013-06-10 13:09:00,
2013-06-10 09:10:00,70.7,67.7,29.86,West,270,1.1,4.3,90,0.10,,,0.11,WUHU216HW,2013-06-10 13:10:00,
2013-06-10 09:12:00,70.6,67.1,29.86,South,180,1.1,4.3,89,0.11,,,0.12,WUHU216HW,2013-06-10 13:12:00,
2013-06-10 09:14:00,70.4,67.3,29.86,SE,135,1.5,4.3,90,0.11,,,0.12,WUHU216HW,2013-06-10 13:14:00,
2013-06-10 09:15:00,70.2,67.1,29.86,SE,135,1.1,4.3,90,0.11,,,0.12,WUHU216HW,2013-06-10 13:15:00,
2013-06-10 09:16:00,70.2,67.1,29.86,SE,135,2.0,4.3,90,0.11,,,0.12,WUHU216HW,2013-06-10 13:16:00,
2013-06-10 09:18:00,70.2,67.1,29.86,South,183,1.0,2.0,90,0.11,,,0.12,WUHU216HW,2013-06-10 13:18:00,
2013-06-10 09:19:00,70.0,67.0,29.86,South,180,1.8,2.0,90,0.11,,,0.12,WUHU216HW,2013-06-10 13:19:00,
2013-06-10 09:20:00,70.0,67.0,29.86,South,180,1.5,2.0,90,0.11,,,0.12,WUHU216HW,2013-06-10 13:20:00,
2013-06-10 09:21:00,70.0,67.0,29.86,SE,135,6.5,6.5,90,0.11,,,0.12,WUHU216HW,2013-06-10 13:21:00,
2013-06-10 09:24:00,69.8,66.8,29.86,SSE,148,3.6,6.5,90,0.11,,,0.12,WUHU216HW,2013-06-10 13:24:00,
2013-06-10 09:25:00,69.8,66.8,29.86,SE,125,2.7,6.5,90,0.11,,,0.12,WUHU216HW,2013-06-10 13:25:00,
2013-06-10 09:26:00,69.8,66.8,29.86,SE,140,2.2,6.5,90,0.11,,,0.12,WUHU216HW,2013-06-10 13:26:00,
2013-06-10 09:27:00,69.8,66.8,29.86,SE,135,3.6,6.5,90,0.11,,,0.12,WUHU216HW,2013-06-10 13:27:00,
2013-06-10 09:29:00,69.8,66.8,29.86,SSW,193,3.8,6.5,90,0.11,,,0.12,WUHU216HW,2013-06-10 13:29:00,
2013-06-10 09:31:00,69.8,66.8,29.86,SSW,203,3.8,4.7,90,0.08,,,0.12,WUHU216HW,2013-06-10 13:31:00,
2013-06-10 09:32:00,69.8,66.8,29.86,SSW,210,2.9,4.7,90,0.06,,,0.12,WUHU216HW,2013-06-10 13:32:00,
2013-06-10 09:34:00,69.8,66.8,29.86,South,180,3.1,4.7,90,0.04,,,0.12,WUHU216HW,2013-06-10 13:34:00,
2013-06-10 09:37:00,70.0,67.0,29.86,WSW,248,0.7,4.7,90,0.03,,,0.12,WUHU216HW,2013-06-10 13:37:00,
2013-06-10 09:39:00,70.0,67.0,29.86,South,187,0.6,3.8,90,0.03,,,0.12,WUHU216HW,2013-06-10 13:39:00,
2013-06-10 09:41:00,70.2,67.1,29.87,WSW,248,2.0,3.1,90,0.03,,,0.12,WUHU216HW,2013-06-10 13:41:00,
2013-06-10 09:42:00,70.4,67.3,29.87,WSW,238,1.8,3.1,90,0.03,,,0.12,WUHU216HW,2013-06-10 13:42:00,
2013-06-10 09:43:00,70.6,67.5,29.87,South,186,1.5,3.1,90,0.03,,,0.12,WUHU216HW,2013-06-10 13:43:00,
2013-06-10 09:44:00,70.6,67.5,29.87,West,270,2.0,2.0,90,0.03,,,0.12,WUHU216HW,2013-06-10 13:44:00,
2013-06-10 09:48:00,70.9,67.9,29.87,SW,225,2.0,2.0,90,0.02,,,0.12,WUHU216HW,2013-06-10 13:48:00,
2013-06-10 09:49:00,70.9,67.9,29.87,NNE,23,2.5,2.5,90,0.02,,,0.12,WUHU216HW,2013-06-10 13:49:00,
2013-06-10 09:50:00,70.9,67.9,29.87,ENE,72,2.3,2.5,90,0.02,,,0.12,WUHU216HW,2013-06-10 13:50:00,
2013-06-10 09:51:00,71.1,68.0,29.87,SSW,201,1.9,2.5,90,0.02,,,0.12,WUHU216HW,2013-06-10 13:51:00,
2013-06-10 09:53:00,71.1,68.0,29.87,SSW,210,1.7,2.5,90,0.02,,,0.12,WUHU216HW,2013-06-10 13:53:00,
2013-06-10 09:54:00,71.3,68.2,29.87,South,189,0.9,2.5,90,0.02,,,0.12,WUHU216HW,2013-06-10 13:54:00,
2013-06-10 09:55:00,71.3,67.9,29.87,South,180,2.5,2.5,89,0.02,,,0.12,WUHU216HW,2013-06-10 13:55:00,
2013-06-10 09:56:00,71.5,68.0,29.87,SSE,158,3.1,3.1,89,0.02,,,0.12,WUHU216HW,2013-06-10 13:56:00,
2013-06-10 09:59:00,71.8,68.4,29.87,SE,135,1.6,3.1,89,0.02,,,0.12,WUHU216HW,2013-06-10 13:59:00,
2013-06-10 10:00:00,71.8,68.4,29.87,SE,142,1.0,3.1,89,0.02,,,0.12,WUHU216HW,2013-06-10 14:00:00,
2013-06-10 10:01:00,72.0,68.6,29.87,WSW,248,2.2,3.1,89,0.02,,,0.12,WUHU216HW,2013-06-10 14:01:00,
2013-06-10 10:05:00,72.0,68.2,29.87,WSW,257,3.0,4.7,88,0.01,,,0.12,WUHU216HW,2013-06-10 14:05:00,
2013-06-10 10:06:00,72.0,68.2,29.87,WSW,248,3.4,4.7,88,0.01,,,0.12,WUHU216HW,2013-06-10 14:06:00,
2013-06-10 10:07:00,72.0,68.2,29.87,WSW,243,1.9,4.7,88,0.01,,,0.12,WUHU216HW,2013-06-10 14:07:00,
2013-06-10 10:10:00,72.0,68.2,29.87,SSW,210,1.8,4.7,88,0.01,,,0.12,WUHU216HW,2013-06-10 14:10:00,
2013-06-10 10:12:00,72.0,68.2,29.87,SSW,204,1.4,4.7,88,0.00,,,0.12,WUHU216HW,2013-06-10 14:12:00,
2013-06-10 10:13:00,72.0,68.2,29.87,SSW,204,1.4,4.7,88,0.00,,,0.12,WUHU216HW,2013-06-10 14:13:00,
2013-06-10 10:14:00,72.0,68.2,29.87,WSW,248,1.1,3.4,88,0.00,,,0.12,WUHU216HW,2013-06-10 14:14:00,
2013-06-10 10:16:00,72.0,68.0,29.87,SSW,203,1.3,2.2,87,0.00,,,0.12,WUHU216HW,2013-06-10 14:16:00,
2013-06-10 10:17:00,72.2,68.4,29.87,SSE,158,2.0,2.2,88,0.00,,,0.12,WUHU216HW,2013-06-10 14:17:00,
2013-06-10 10:18:00,72.2,68.4,29.87,SSE,148,1.8,2.2,88,0.00,,,0.12,WUHU216HW,2013-06-10 14:18:00,
2013-06-10 10:19:00,72.4,68.6,29.87,WSW,248,1.6,2.2,88,0.00,,,0.12,WUHU216HW,2013-06-10 14:19:00,
2013-06-10 10:22:00,72.5,68.5,29.87,SSE,158,2.5,2.5,87,0.00,,,0.12,WUHU216HW,2013-06-10 14:22:00,
2013-06-10 10:23:00,72.7,68.7,29.87,SSW,194,2.0,2.7,87,0.00,,,0.12,WUHU216HW,2013-06-10 14:23:00,
2013-06-10 10:24:00,72.9,68.9,29.87,SSE,158,4.0,4.0,87,0.00,,,0.12,WUHU216HW,2013-06-10 14:24:00,
2013-06-10 10:25:00,73.1,69.0,29.87,South,175,2.8,4.0,87,0.00,,,0.12,WUHU216HW,2013-06-10 14:25:00,
2013-06-10 10:27:00,73.3,69.5,29.87,SE,135,3.4,4.0,88,0.00,,,0.12,WUHU216HW,2013-06-10 14:27:00,
2013-06-10 10:28:00,73.3,69.5,29.87,SSE,150,2.2,4.0,88,0.00,,,0.12,WUHU216HW,2013-06-10 14:28:00,
2013-06-10 10:29:00,73.4,69.7,29.87,South,180,2.2,4.0,88,0.00,,,0.12,WUHU216HW,2013-06-10 14:29:00,
2013-06-10 10:30:00,73.4,69.4,29.87,South,170,1.3,4.0,87,0.00,,,0.12,WUHU216HW,2013-06-10 14:30:00,
2013-06-10 10:32:00,73.6,69.6,29.87,SSE,147,0.7,4.0,87,0.00,,,0.12,WUHU216HW,2013-06-10 14:32:00,
2013-06-10 10:34:00,73.4,69.4,29.87,SSW,193,2.7,3.4,87,0.00,,,0.12,WUHU216HW,2013-06-10 14:34:00,
2013-06-10 10:35:00,73.4,69.4,29.87,SW,217,1.8,3.4,87,0.00,,,0.12,WUHU216HW,2013-06-10 14:35:00,
2013-06-10 10:37:00,73.3,69.2,29.87,WSW,248,1.0,3.1,87,0.00,,,0.12,WUHU216HW,2013-06-10 14:37:00,
2013-06-10 10:38:00,73.3,69.2,29.87,WSW,248,1.0,3.1,87,0.00,,,0.12,WUHU216HW,2013-06-10 14:38:00,
2013-06-10 10:40:00,73.1,68.7,29.87,South,190,0.8,3.1,86,0.00,,,0.12,WUHU216HW,2013-06-10 14:40:00,
2013-06-10 10:41:00,73.1,68.7,29.87,South,190,0.8,3.1,86,0.00,,,0.12,WUHU216HW,2013-06-10 14:41:00,
2013-06-10 10:43:00,72.9,68.9,29.87,South,180,0.4,2.2,87,0.00,,,0.12,WUHU216HW,2013-06-10 14:43:00,
2013-06-10 10:44:00,72.9,68.9,29.87,SE,135,1.1,1.3,87,0.00,,,0.12,WUHU216HW,2013-06-10 14:44:00,
2013-06-10 10:45:00,72.9,68.9,29.87,SE,135,0.9,1.3,87,0.00,,,0.12,WUHU216HW,2013-06-10 14:45:00,
2013-06-10 10:47:00,72.9,68.5,29.87,SW,225,1.1,1.3,86,0.00,,,0.12,WUHU216HW,2013-06-10 14:47:00,
2013-06-10 10:48:00,72.9,68.5,29.87,SW,225,1.1,1.3,86,0.00,,,0.12,WUHU216HW,2013-06-10 14:48:00,
2013-06-10 10:50:00,73.1,69.0,29.87,WSW,248,1.8,1.8,87,0.00,,,0.12,WUHU216HW,2013-06-10 14:50:00,
2013-06-10 10:51:00,73.1,69.0,29.87,SW,225,1.3,1.8,87,0.00,,,0.12,WUHU216HW,2013-06-10 14:51:00,
2013-06-10 10:52:00,73.3,69.2,29.87,SSW,203,1.1,1.8,87,0.00,,,0.12,WUHU216HW,2013-06-10 14:52:00,
2013-06-10 10:54:00,73.3,69.2,29.87,SSW,203,1.8,1.8,87,0.00,,,0.12,WUHU216HW,2013-06-10 14:54:00,
2013-06-10 10:55:00,73.4,69.0,29.87,SSW,194,1.5,1.8,86,0.00,,,0.12,WUHU216HW,2013-06-10 14:55:00,
2013-06-10 10:57:00,73.6,69.2,29.87,SE,135,2.5,2.5,86,0.00,,,0.12,WUHU216HW,2013-06-10 14:57:00,
2013-06-10 10:58:00,73.8,69.4,29.87,SSE,149,1.6,2.5,86,0.00,,,0.12,WUHU216HW,2013-06-10 14:58:00,
2013-06-10 11:00:00,74.0,69.6,29.87,SSE,158,2.0,2.5,86,0.00,,,0.12,WUHU216HW,2013-06-10 15:00:00,
2013-06-10 11:02:00,74.3,69.9,29.87,SSW,203,2.5,2.5,86,0.00,,,0.12,WUHU216HW,2013-06-10 15:02:00,
2013-06-10 11:03:00,74.5,70.1,29.87,SSW,193,2.3,2.5,86,0.00,,,0.12,WUHU216HW,2013-06-10 15:03:00,
2013-06-10 11:04:00,74.7,70.3,29.87,ESE,113,2.2,2.5,86,0.00,,,0.12,WUHU216HW,2013-06-10 15:04:00,
2013-06-10 11:05:00,74.9,70.5,29.87,ESE,123,2.0,2.5,86,0.00,,,0.12,WUHU216HW,2013-06-10 15:05:00,
2013-06-10 11:08:00,75.2,70.5,29.87,WSW,248,2.5,2.5,85,0.00,,,0.12,WUHU216HW,2013-06-10 15:08:00,
2013-06-10 11:11:00,75.8,71.0,29.87,SSE,155,2.2,4.0,85,0.00,,,0.12,WUHU216HW,2013-06-10 15:11:00,
2013-06-10 11:12:00,76.0,71.2,29.87,SSE,158,1.1,4.0,85,0.00,,,0.12,WUHU216HW,2013-06-10 15:12:00,
2013-06-10 11:14:00,76.0,70.8,29.87,South,180,3.4,4.0,84,0.00,,,0.12,WUHU216HW,2013-06-10 15:14:00,
2013-06-10 11:15:00,76.0,70.8,29.87,South,180,3.4,4.0,84,0.00,,,0.12,WUHU216HW,2013-06-10 15:15:00,
2013-06-10 11:17:00,76.1,70.7,29.87,SW,225,2.9,4.0,83,0.00,,,0.12,WUHU216HW,2013-06-10 15:17:00,
2013-06-10 11:18:00,76.1,70.7,29.87,WSW,239,1.8,4.0,83,0.00,,,0.12,WUHU216HW,2013-06-10 15:18:00,
2013-06-10 11:19:00,76.1,70.7,29.87,South,180,1.8,4.0,83,0.00,,,0.12,WUHU216HW,2013-06-10 15:19:00,
2013-06-10 11:20:00,76.1,70.7,29.87,South,180,6.3,6.3,83,0.00,,,0.12,WUHU216HW,2013-06-10 15:20:00,
2013-06-10 11:23:00,76.1,70.3,29.87,SSE,158,5.1,6.3,82,0.00,,,0.12,WUHU216HW,2013-06-10 15:23:00,
2013-06-10 11:24:00,76.1,70.3,29.87,SSE,166,4.3,6.3,82,0.00,,,0.12,WUHU216HW,2013-06-10 15:24:00,
2013-06-10 11:25:00,76.1,70.3,29.87,SE,135,4.3,6.3,82,0.00,,,0.12,WUHU216HW,2013-06-10 15:25:00,
2013-06-10 11:28:00,76.1,70.3,29.87,South,181,3.2,6.3,82,0.00,,,0.12,WUHU216HW,2013-06-10 15:28:00,
2013-06-10 11:29:00,76.3,70.5,29.87,ESE,113,1.6,6.3,82,0.00,,,0.12,WUHU216HW,2013-06-10 15:29:00,
2013-06-10 11:30:00,76.3,70.5,29.87,SSW,203,2.0,5.1,82,0.00,,,0.12,WUHU216HW,2013-06-10 15:30:00,
2013-06-10 11:34:00,77.0,71.1,29.87,SE,133,2.3,4.3,82,0.00,,,0.12,WUHU216HW,2013-06-10 15:34:00,
2013-06-10 11:35:00,77.4,71.5,29.87,SSE,165,1.7,4.0,82,0.00,,,0.12,WUHU216HW,2013-06-10 15:35:00,
2013-06-10 11:36:00,77.4,71.5,29.87,South,180,1.1,4.0,82,0.00,,,0.12,WUHU216HW,2013-06-10 15:36:00,
2013-06-10 11:40:00,78.8,72.5,29.88,SE,135,6.3,6.3,81,0.00,,,0.12,WUHU216HW,2013-06-10 15:40:00,
2013-06-10 11:41:00,79.2,72.5,29.88,SSE,166,5.9,6.3,80,0.00,,,0.12,WUHU216HW,2013-06-10 15:41:00,
2013-06-10 11:42:00,79.4,72.7,29.88,South,187,4.3,6.3,80,0.00,,,0.12,WUHU216HW,2013-06-10 15:42:00,
2013-06-10 11:46:00,79.7,72.3,29.88,WSW,248,1.8,6.3,78,0.00,,,0.12,WUHU216HW,2013-06-10 15:46:00,
2013-06-10 11:47:00,79.7,72.3,29.88,South,180,3.4,6.3,78,0.00,,,0.12,WUHU216HW,2013-06-10 15:47:00,
2013-06-10 11:48:00,79.7,71.9,29.88,SW,225,4.3,6.3,77,0.00,,,0.12,WUHU216HW,2013-06-10 15:48:00,
2013-06-10 11:52:00,80.1,72.3,29.88,SE,135,2.7,4.7,77,0.00,,,0.12,WUHU216HW,2013-06-10 15:52:00,
2013-06-10 11:53:00,80.1,72.3,29.88,SSW,203,4.7,4.7,77,0.00,,,0.12,WUHU216HW,2013-06-10 15:53:00,
2013-06-10 11:54:00,80.1,72.3,29.88,SSW,203,4.7,4.7,77,0.00,,,0.12,WUHU216HW,2013-06-10 15:54:00,
2013-06-10 11:57:00,80.3,72.0,29.88,ESE,121,2.5,4.7,76,0.00,,,0.12,WUHU216HW,2013-06-10 15:57:00,
2013-06-10 11:58:00,80.3,72.0,29.88,ESE,121,2.5,4.7,76,0.00,,,0.12,WUHU216HW,2013-06-10 15:58:00,
2013-06-10 11:59:00,80.5,72.2,29.88,ESE,113,3.4,4.7,76,0.00,,,0.12,WUHU216HW,2013-06-10 15:59:00,
2013-06-10 12:03:00,80.8,72.2,29.88,SSE,158,7.4,7.4,75,0.00,,,0.12,WUHU216HW,2013-06-10 16:03:00,
2013-06-10 12:04:00,80.8,72.2,29.88,SSE,158,7.4,7.4,75,0.00,,,0.12,WUHU216HW,2013-06-10 16:04:00,
2013-06-10 12:09:00,80.8,72.2,29.88,West,270,5.1,7.4,75,0.00,,,0.12,WUHU216HW,2013-06-10 16:09:00,
2013-06-10 12:10:00,81.0,72.4,29.88,WSW,239,3.9,7.4,75,0.00,,,0.12,WUHU216HW,2013-06-10 16:10:00,
2013-06-10 12:11:00,81.2,72.6,29.87,SSE,148,1.9,7.4,75,0.00,,,0.12,WUHU216HW,2013-06-10 16:11:00,
2013-06-10 12:14:00,81.4,72.3,29.87,North,0,2.5,5.8,74,0.00,,,0.12,WUHU216HW,2013-06-10 16:14:00,
2013-06-10 12:16:00,81.7,72.6,29.87,SE,135,1.8,5.1,74,0.00,,,0.12,WUHU216HW,2013-06-10 16:16:00,
2013-06-10 12:17:00,81.5,71.6,29.87,East,93,1.7,5.1,72,0.00,,,0.12,WUHU216HW,2013-06-10 16:17:00,
2013-06-10 12:19:00,81.4,71.5,29.87,West,270,3.4,3.4,72,0.00,,,0.12,WUHU216HW,2013-06-10 16:19:00,
2013-06-10 12:20:00,81.5,71.6,29.87,West,263,1.9,3.4,72,0.00,,,0.12,WUHU216HW,2013-06-10 16:20:00,
2013-06-10 12:22:00,81.5,71.6,29.87,South,180,7.2,7.2,72,0.00,,,0.12,WUHU216HW,2013-06-10 16:22:00,
2013-06-10 12:25:00,81.7,71.4,29.87,SSW,203,1.6,7.2,71,0.00,,,0.12,WUHU216HW,2013-06-10 16:25:00,
2013-06-10 12:27:00,81.7,71.8,29.87,SW,225,4.7,7.2,72,0.00,,,0.12,WUHU216HW,2013-06-10 16:27:00,
2013-06-10 12:28:00,81.7,71.8,29.87,SW,225,4.7,7.2,72,0.00,,,0.12,WUHU216HW,2013-06-10 16:28:00,
2013-06-10 12:30:00,81.5,71.3,29.87,SE,135,3.4,7.2,71,0.00,,,0.12,WUHU216HW,2013-06-10 16:30:00,
2013-06-10 12:31:00,81.5,71.3,29.87,SE,135,3.4,7.2,71,0.00,,,0.12,WUHU216HW,2013-06-10 16:31:00,
2013-06-10 12:32:00,81.0,70.4,29.87,South,170,4.9,5.4,70,0.00,,,0.12,WUHU216HW,2013-06-10 16:32:00,
2013-06-10 12:33:00,81.0,70.4,29.87,South,170,4.9,5.4,70,0.00,,,0.12,WUHU216HW,2013-06-10 16:33:00,
2013-06-10 12:36:00,81.4,71.5,29.87,SSW,194,3.2,5.4,72,0.00,,,0.12,WUHU216HW,2013-06-10 16:36:00,
2013-06-10 12:37:00,81.5,71.6,29.87,WSW,248,4.3,5.4,72,0.00,,,0.12,WUHU216HW,2013-06-10 16:37:00,
2013-06-10 12:38:00,81.5,71.3,29.87,WSW,248,3.2,5.4,71,0.00,,,0.12,WUHU216HW,2013-06-10 16:38:00,
2013-06-10 12:39:00,81.5,71.3,29.87,WSW,248,3.2,5.4,71,0.00,,,0.12,WUHU216HW,2013-06-10 16:39:00,
2013-06-10 12:42:00,82.1,72.2,29.87,SW,225,1.7,4.5,72,0.00,,,0.12,WUHU216HW,2013-06-10 16:42:00,
2013-06-10 12:43:00,82.1,72.2,29.87,SW,225,1.7,4.5,72,0.00,,,0.12,WUHU216HW,2013-06-10 16:43:00,
2013-06-10 12:44:00,82.3,72.3,29.87,SSW,212,0.6,4.5,72,0.00,,,0.12,WUHU216HW,2013-06-10 16:44:00,
2013-06-10 12:45:00,82.4,72.5,29.87,SE,135,3.6,4.5,72,0.00,,,0.12,WUHU216HW,2013-06-10 16:45:00,
2013-06-10 12:48:00,82.4,72.5,29.87,WSW,248,2.7,4.5,72,0.00,,,0.12,WUHU216HW,2013-06-10 16:48:00,
2013-06-10 12:49:00,82.3,71.5,29.87,SSW,203,3.1,3.6,70,0.00,,,0.12,WUHU216HW,2013-06-10 16:49:00,
2013-06-10 12:50:00,82.3,71.5,29.87,SSW,203,3.1,3.6,70,0.00,,,0.12,WUHU216HW,2013-06-10 16:50:00,
2013-06-10 12:52:00,82.1,70.8,29.87,SW,225,1.3,3.6,69,0.00,,,0.12,WUHU216HW,2013-06-10 16:52:00,
2013-06-10 12:53:00,82.3,71.5,29.87,South,180,1.8,3.6,70,0.00,,,0.12,WUHU216HW,2013-06-10 16:53:00,
2013-06-10 12:55:00,82.3,71.9,29.87,SE,138,1.7,3.6,71,0.00,,,0.12,WUHU216HW,2013-06-10 16:55:00,
2013-06-10 12:57:00,82.1,69.9,29.87,East,101,3.6,3.8,67,0.00,,,0.12,WUHU216HW,2013-06-10 16:57:00,
2013-06-10 12:59:00,81.7,70.1,29.87,ESE,106,1.9,3.8,68,0.00,,,0.12,WUHU216HW,2013-06-10 16:59:00,
2013-06-10 13:00:00,81.4,70.2,29.87,SSW,203,1.8,3.8,69,0.00,,,0.12,WUHU216HW,2013-06-10 17:00:00,
2013-06-10 13:03:00,80.8,70.2,29.88,NE,45,2.2,4.3,70,0.00,,,0.12,WUHU216HW,2013-06-10 17:03:00,
2013-06-10 13:04:00,80.8,70.2,29.88,East,87,2.1,4.3,70,0.00,,,0.12,WUHU216HW,2013-06-10 17:04:00,
2013-06-10 13:05:00,80.8,70.6,29.88,WSW,248,2.0,4.3,71,0.00,,,0.12,WUHU216HW,2013-06-10 17:05:00,
2013-06-10 13:06:00,80.8,70.6,29.88,West,270,2.2,4.3,71,0.00,,,0.12,WUHU216HW,2013-06-10 17:06:00,
2013-06-10 13:07:00,81.0,70.7,29.88,East,90,4.0,4.3,71,0.00,,,0.12,WUHU216HW,2013-06-10 17:07:00,
2013-06-10 13:09:00,81.2,71.3,29.88,ESE,122,3.8,4.3,72,0.00,,,0.12,WUHU216HW,2013-06-10 17:09:00,
2013-06-10 13:11:00,81.9,71.6,29.88,SSW,200,3.3,7.2,71,0.00,,,0.12,WUHU216HW,2013-06-10 17:11:00,
2013-06-10 13:12:00,82.1,72.2,29.88,West,270,4.9,7.2,72,0.00,,,0.12,WUHU216HW,2013-06-10 17:12:00,
2013-06-10 13:14:00,82.6,72.3,29.88,West,270,2.3,7.2,71,0.00,,,0.12,WUHU216HW,2013-06-10 17:14:00,
2013-06-10 13:16:00,83.0,72.2,29.87,SW,234,3.3,7.2,70,0.00,,,0.12,WUHU216HW,2013-06-10 17:16:00,
2013-06-10 13:17:00,83.0,72.2,29.87,SW,234,3.3,7.2,70,0.00,,,0.12,WUHU216HW,2013-06-10 17:17:00,
2013-06-10 13:20:00,83.3,72.5,29.87,ESE,113,2.7,4.9,70,0.00,,,0.12,WUHU216HW,2013-06-10 17:20:00,
2013-06-10 13:21:00,83.5,72.7,29.87,SE,146,3.9,4.9,70,0.00,,,0.12,WUHU216HW,2013-06-10 17:21:00,
2013-06-10 13:22:00,83.7,72.9,29.87,South,174,2.5,4.0,70,0.00,,,0.12,WUHU216HW,2013-06-10 17:22:00,
2013-06-10 13:23:00,83.9,72.6,29.87,ESE,113,4.0,4.0,69,0.00,,,0.12,WUHU216HW,2013-06-10 17:23:00,
2013-06-10 13:25:00,84.1,72.8,29.87,South,180,2.5,4.0,69,0.00,,,0.12,WUHU216HW,2013-06-10 17:25:00,
2013-06-10 13:26:00,84.1,72.8,29.87,South,180,2.5,4.0,69,0.00,,,0.12,WUHU216HW,2013-06-10 17:26:00,
2013-06-10 13:27:00,83.9,72.2,29.87,SSW,192,2.8,4.0,68,0.00,,,0.12,WUHU216HW,2013-06-10 17:27:00,
2013-06-10 13:29:00,83.9,72.2,29.87,SE,145,3.4,4.0,68,0.00,,,0.12,WUHU216HW,2013-06-10 17:29:00,
2013-06-10 13:32:00,83.9,72.2,29.87,SW,225,4.9,4.9,68,0.00,,,0.12,WUHU216HW,2013-06-10 17:32:00,
2013-06-10 13:33:00,83.9,71.7,29.87,SW,223,2.7,4.9,67,0.00,,,0.12,WUHU216HW,2013-06-10 17:33:00,
2013-06-10 13:34:00,83.9,72.2,29.87,East,90,2.0,4.9,68,0.00,,,0.12,WUHU216HW,2013-06-10 17:34:00,
2013-06-10 13:35:00,83.9,72.2,29.87,East,90,2.0,4.9,68,0.00,,,0.12,WUHU216HW,2013-06-10 17:35:00,
2013-06-10 13:37:00,84.2,72.5,29.87,SSE,150,3.5,4.9,68,0.00,,,0.12,WUHU216HW,2013-06-10 17:37:00,
2013-06-10 13:38:00,84.4,72.3,29.87,SSE,158,4.7,4.9,67,0.00,,,0.12,WUHU216HW,2013-06-10 17:38:00,
2013-06-10 13:39:00,84.4,72.3,29.87,SSE,158,4.7,4.9,67,0.00,,,0.12,WUHU216HW,2013-06-10 17:39:00,
2013-06-10 13:40:00,84.8,72.6,29.87,SE,135,2.6,4.9,67,0.00,,,0.12,WUHU216HW,2013-06-10 17:40:00,
2013-06-10 13:42:00,84.8,72.6,29.87,SSE,150,1.3,4.9,67,0.00,,,0.12,WUHU216HW,2013-06-10 17:42:00,
2013-06-10 13:44:00,84.6,72.0,29.87,West,270,3.4,4.7,66,0.00,,,0.12,WUHU216HW,2013-06-10 17:44:00,
2013-06-10 13:45:00,84.4,71.8,29.87,SSW,192,1.1,4.7,66,0.00,,,0.12,WUHU216HW,2013-06-10 17:45:00,
2013-06-10 13:46:00,84.4,71.8,29.87,SSW,192,1.1,4.7,66,0.00,,,0.12,WUHU216HW,2013-06-10 17:46:00,
2013-06-10 13:47:00,84.1,71.5,29.87,SW,225,1.1,4.7,66,0.00,,,0.12,WUHU216HW,2013-06-10 17:47:00,
2013-06-10 13:49:00,83.9,71.7,29.87,SW,225,1.6,3.4,67,0.00,,,0.12,WUHU216HW,2013-06-10 17:49:00,
2013-06-10 13:50:00,83.9,71.7,29.87,SW,225,1.6,3.4,67,0.00,,,0.12,WUHU216HW,2013-06-10 17:50:00,
2013-06-10 13:51:00,83.9,71.7,29.87,North,0,1.6,3.4,67,0.00,,,0.12,WUHU216HW,2013-06-10 17:51:00,
2013-06-10 13:52:00,84.2,72.1,29.87,SSE,158,4.9,4.9,67,0.00,,,0.12,WUHU216HW,2013-06-10 17:52:00,
2013-06-10 13:53:00,84.2,72.1,29.87,SSE,158,4.9,4.9,67,0.00,,,0.12,WUHU216HW,2013-06-10 17:53:00,
2013-06-10 13:55:00,84.6,72.9,29.86,SSE,158,4.0,5.4,68,0.00,,,0.12,WUHU216HW,2013-06-10 17:55:00,
2013-06-10 13:57:00,85.0,72.8,29.86,SW,225,4.0,5.4,67,0.00,,,0.12,WUHU216HW,2013-06-10 17:57:00,
2013-06-10 13:59:00,85.1,72.0,29.86,SSE,158,1.3,5.4,65,0.00,,,0.12,WUHU216HW,2013-06-10 17:59:00,
2013-06-10 14:00:00,85.1,71.6,29.86,SSE,158,4.9,5.4,64,0.00,,,0.12,WUHU216HW,2013-06-10 18:00:00,
2013-06-10 14:02:00,85.1,71.6,29.86,SSW,204,4.5,5.4,64,0.00,,,0.12,WUHU216HW,2013-06-10 18:02:00,
2013-06-10 14:04:00,85.3,71.7,29.86,SSE,158,4.9,4.9,64,0.00,,,0.12,WUHU216HW,2013-06-10 18:04:00,
2013-06-10 14:06:00,85.3,72.2,29.85,NW,315,4.5,4.9,65,0.00,,,0.12,WUHU216HW,2013-06-10 18:06:00,
2013-06-10 14:07:00,85.3,72.2,29.85,South,186,3.0,4.9,65,0.00,,,0.12,WUHU216HW,2013-06-10 18:07:00,
2013-06-10 14:09:00,85.3,72.2,29.85,SE,135,2.2,4.9,65,0.00,,,0.12,WUHU216HW,2013-06-10 18:09:00,
2013-06-10 14:11:00,85.1,71.6,29.85,South,183,4.0,4.9,64,0.00,,,0.12,WUHU216HW,2013-06-10 18:11:00,
2013-06-10 14:12:00,85.0,71.9,29.85,SE,136,3.3,4.9,65,0.00,,,0.12,WUHU216HW,2013-06-10 18:12:00,
2013-06-10 14:13:00,85.1,72.0,29.85,SE,135,3.1,4.9,65,0.00,,,0.12,WUHU216HW,2013-06-10 18:13:00,
2013-06-10 14:15:00,85.3,72.7,29.85,South,170,2.5,4.5,66,0.00,,,0.12,WUHU216HW,2013-06-10 18:15:00,
2013-06-10 14:17:00,85.5,73.4,29.85,WSW,248,1.5,4.5,67,0.00,,,0.12,WUHU216HW,2013-06-10 18:17:00,
2013-06-10 14:18:00,85.5,73.4,29.85,WSW,248,1.1,4.5,67,0.00,,,0.12,WUHU216HW,2013-06-10 18:18:00,
2013-06-10 14:19:00,85.5,72.8,29.85,SW,233,2.6,4.5,66,0.00,,,0.12,WUHU216HW,2013-06-10 18:19:00,
2013-06-10 14:20:00,85.5,72.4,29.85,SSW,203,1.8,3.4,65,0.00,,,0.12,WUHU216HW,2013-06-10 18:20:00,
2013-06-10 14:22:00,85.5,71.9,29.85,ESE,113,3.4,4.3,64,0.00,,,0.12,WUHU216HW,2013-06-10 18:22:00,
2013-06-10 14:23:00,85.5,72.4,29.85,WSW,248,4.0,4.3,65,0.00,,,0.12,WUHU216HW,2013-06-10 18:23:00,
2013-06-10 14:24:00,85.3,72.2,29.85,SW,215,3.3,4.3,65,0.00,,,0.12,WUHU216HW,2013-06-10 18:24:00,
2013-06-10 14:25:00,85.3,72.2,29.85,SW,215,3.3,4.3,65,0.00,,,0.12,WUHU216HW,2013-06-10 18:25:00,
2013-06-10 14:28:00,85.0,71.9,29.85,SE,129,2.8,4.3,65,0.00,,,0.12,WUHU216HW,2013-06-10 18:28:00,
2013-06-10 14:29:00,85.0,71.9,29.85,SSE,160,1.5,4.3,65,0.00,,,0.12,WUHU216HW,2013-06-10 18:29:00,
2013-06-10 14:30:00,85.0,71.9,29.85,SW,225,1.3,4.3,65,0.00,,,0.12,WUHU216HW,2013-06-10 18:30:00,
2013-06-10 14:31:00,85.0,72.4,29.85,SSE,158,5.4,5.4,66,0.00,,,0.12,WUHU216HW,2013-06-10 18:31:00,
2013-06-10 14:33:00,85.1,72.0,29.85,ESE,113,1.6,5.4,65,0.00,,,0.12,WUHU216HW,2013-06-10 18:33:00,
2013-06-10 14:35:00,85.5,72.8,29.84,South,180,2.5,5.4,66,0.00,,,0.12,WUHU216HW,2013-06-10 18:35:00,
2013-06-10 14:36:00,85.5,72.8,29.84,South,180,2.5,5.4,66,0.00,,,0.12,WUHU216HW,2013-06-10 18:36:00,
2013-06-10 14:38:00,85.9,72.7,29.84,South,180,4.0,5.4,65,0.00,,,0.12,WUHU216HW,2013-06-10 18:38:00,
2013-06-10 14:40:00,86.0,72.5,29.84,ENE,72,2.8,4.0,64,0.00,,,0.12,WUHU216HW,2013-06-10 18:40:00,
2013-06-10 14:41:00,86.2,72.6,29.84,SW,225,5.1,5.1,64,0.00,,,0.12,WUHU216HW,2013-06-10 18:41:00,
2013-06-10 14:42:00,86.2,72.6,29.84,SW,225,5.1,5.1,64,0.00,,,0.12,WUHU216HW,2013-06-10 18:42:00,
2013-06-10 14:44:00,86.4,71.8,29.84,SW,225,1.1,5.1,62,0.00,,,0.12,WUHU216HW,2013-06-10 18:44:00,
2013-06-10 14:46:00,86.4,72.3,29.84,South,180,2.9,5.1,63,0.00,,,0.12,WUHU216HW,2013-06-10 18:46:00,
2013-06-10 14:47:00,86.8,72.6,29.84,SSE,147,4.3,5.1,63,0.00,,,0.12,WUHU216HW,2013-06-10 18:47:00,
2013-06-10 14:50:00,86.8,72.6,29.84,South,169,2.5,5.1,63,0.00,,,0.12,WUHU216HW,2013-06-10 18:50:00,
2013-06-10 14:51:00,86.8,72.6,29.84,West,270,2.7,5.1,63,0.00,,,0.12,WUHU216HW,2013-06-10 18:51:00,
2013-06-10 14:52:00,86.8,73.1,29.84,West,270,2.7,4.7,64,0.00,,,0.12,WUHU216HW,2013-06-10 18:52:00,
2013-06-10 14:54:00,86.8,72.6,29.84,SW,225,4.8,6.7,63,0.00,,,0.12,WUHU216HW,2013-06-10 18:54:00,
2013-06-10 14:56:00,86.9,73.3,29.84,ESE,113,3.1,6.7,64,0.00,,,0.12,WUHU216HW,2013-06-10 18:56:00,
2013-06-10 14:58:00,86.9,72.8,29.84,SSW,203,4.6,6.7,63,0.00,,,0.12,WUHU216HW,2013-06-10 18:58:00,
2013-06-10 14:59:00,87.1,73.0,29.84,SW,225,1.6,6.7,63,0.00,,,0.12,WUHU216HW,2013-06-10 18:59:00,
2013-06-10 15:01:00,87.3,73.2,29.84,SSE,158,4.5,6.7,63,0.00,,,0.12,WUHU216HW,2013-06-10 19:01:00,
2013-06-10 15:03:00,87.1,72.1,29.84,South,180,4.9,5.8,61,0.00,,,0.12,WUHU216HW,2013-06-10 19:03:00,
2013-06-10 15:05:00,87.3,72.7,29.84,SSE,158,4.0,5.8,62,0.00,,,0.12,WUHU216HW,2013-06-10 19:05:00,
2013-06-10 15:06:00,87.1,72.5,29.84,SSE,149,3.3,4.9,62,0.00,,,0.12,WUHU216HW,2013-06-10 19:06:00,
2013-06-10 15:08:00,86.8,71.7,29.84,SW,218,3.3,4.9,61,0.00,,,0.12,WUHU216HW,2013-06-10 19:08:00,
2013-06-10 15:09:00,86.4,71.4,29.84,SW,225,1.5,4.9,61,0.00,,,0.12,WUHU216HW,2013-06-10 19:09:00,
2013-06-10 15:11:00,86.0,71.5,29.84,West,270,2.2,4.9,62,0.00,,,0.12,WUHU216HW,2013-06-10 19:11:00,
2013-06-10 15:12:00,85.9,71.8,29.84,SW,215,2.0,4.9,63,0.00,,,0.12,WUHU216HW,2013-06-10 19:12:00,
2013-06-10 15:13:00,85.9,72.3,29.84,West,270,1.8,4.5,64,0.00,,,0.12,WUHU216HW,2013-06-10 19:13:00,
2013-06-10 15:14:00,85.9,71.8,29.84,WSW,245,1.5,4.5,63,0.00,,,0.12,WUHU216HW,2013-06-10 19:14:00,
2013-06-10 15:16:00,86.0,72.0,29.84,ESE,113,1.3,4.5,63,0.00,,,0.12,WUHU216HW,2013-06-10 19:16:00,
2013-06-10 15:18:00,86.4,72.3,29.84,SE,128,3.1,3.4,63,0.00,,,0.12,WUHU216HW,2013-06-10 19:18:00,
2013-06-10 15:19:00,86.4,72.3,29.84,SE,128,3.1,3.4,63,0.00,,,0.12,WUHU216HW,2013-06-10 19:19:00,
2013-06-10 15:21:00,86.0,71.5,29.84,WNW,299,2.2,3.4,62,0.00,,,0.12,WUHU216HW,2013-06-10 19:21:00,
2013-06-10 15:23:00,85.9,71.4,29.84,ESE,113,3.4,3.4,62,0.00,,,0.12,WUHU216HW,2013-06-10 19:23:00,
2013-06-10 15:24:00,85.9,71.4,29.84,ESE,113,3.4,3.4,62,0.00,,,0.12,WUHU216HW,2013-06-10 19:24:00,
2013-06-10 15:26:00,85.5,71.0,29.84,South,186,1.7,3.4,62,0.00,,,0.12,WUHU216HW,2013-06-10 19:26:00,
2013-06-10 15:27:00,85.7,71.7,29.84,SW,225,1.5,3.4,63,0.00,,,0.12,WUHU216HW,2013-06-10 19:27:00,
2013-06-10 15:29:00,85.7,71.7,29.84,SSW,192,3.7,4.5,63,0.00,,,0.12,WUHU216HW,2013-06-10 19:29:00,
2013-06-10 15:30:00,85.7,71.7,29.84,SE,135,5.4,5.4,63,0.00,,,0.12,WUHU216HW,2013-06-10 19:30:00,
2013-06-10 15:31:00,85.7,71.2,29.84,SE,125,5.1,5.4,62,0.00,,,0.12,WUHU216HW,2013-06-10 19:31:00,
2013-06-10 15:32:00,85.9,71.4,29.84,East,90,3.3,5.4,62,0.00,,,0.12,WUHU216HW,2013-06-10 19:32:00,
2013-06-10 15:35:00,85.7,70.8,29.84,NNW,330,3.3,5.4,61,0.00,,,0.12,WUHU216HW,2013-06-10 19:35:00,
2013-06-10 15:36:00,85.9,70.8,29.84,ESE,113,4.3,5.4,61,0.00,,,0.12,WUHU216HW,2013-06-10 19:36:00,
2013-06-10 15:37:00,86.0,72.0,29.84,SW,233,3.1,5.4,63,0.00,,,0.12,WUHU216HW,2013-06-10 19:37:00,
2013-06-10 15:38:00,86.0,72.0,29.84,SW,233,3.1,5.4,63,0.00,,,0.12,WUHU216HW,2013-06-10 19:38:00,
2013-06-10 15:40:00,86.2,72.2,29.83,WSW,248,1.9,5.4,63,0.00,,,0.12,WUHU216HW,2013-06-10 19:40:00,
2013-06-10 15:41:00,86.4,71.8,29.83,West,270,2.0,5.1,62,0.00,,,0.12,WUHU216HW,2013-06-10 19:41:00,
2013-06-10 15:44:00,86.4,71.8,29.83,South,180,4.7,5.1,62,0.00,,,0.12,WUHU216HW,2013-06-10 19:44:00,
2013-06-10 15:45:00,86.2,71.6,29.83,SSW,193,3.3,5.1,62,0.00,,,0.12,WUHU216HW,2013-06-10 19:45:00,
2013-06-10 15:46:00,86.0,71.5,29.83,SW,214,1.2,5.1,62,0.00,,,0.12,WUHU216HW,2013-06-10 19:46:00,
2013-06-10 15:47:00,85.9,71.4,29.83,SW,225,1.6,4.7,62,0.00,,,0.12,WUHU216HW,2013-06-10 19:47:00,
2013-06-10 15:50:00,85.3,70.8,29.83,SSE,158,3.7,4.7,62,0.00,,,0.12,WUHU216HW,2013-06-10 19:50:00,
2013-06-10 15:51:00,85.3,70.8,29.83,SSE,165,2.0,4.7,62,0.00,,,0.12,WUHU216HW,2013-06-10 19:51:00,
2013-06-10 15:52:00,85.3,71.3,29.83,South,189,0.4,4.7,63,0.00,,,0.12,WUHU216HW,2013-06-10 19:52:00,
2013-06-10 15:55:00,85.7,71.7,29.82,ENE,68,1.7,4.0,63,0.00,,,0.12,WUHU216HW,2013-06-10 19:55:00,
2013-06-10 15:56:00,85.7,71.7,29.82,SSE,158,6.3,6.3,63,0.00,,,0.12,WUHU216HW,2013-06-10 19:56:00,
2013-06-10 15:57:00,85.7,71.7,29.82,SSE,158,4.9,6.3,63,0.00,,,0.12,WUHU216HW,2013-06-10 19:57:00,
2013-06-10 15:58:00,85.7,71.2,29.82,South,178,2.3,6.3,62,0.00,,,0.12,WUHU216HW,2013-06-10 19:58:00,
2013-06-10 16:00:00,85.7,71.2,29.82,West,270,4.0,6.3,62,0.00,,,0.12,WUHU216HW,2013-06-10 20:00:00,
2013-06-10 16:01:00,85.7,71.2,29.82,WSW,258,2.4,6.3,62,0.00,,,0.12,WUHU216HW,2013-06-10 20:01:00,
2013-06-10 16:02:00,85.7,71.2,29.82,SSE,158,0.4,6.3,62,0.00,,,0.12,WUHU216HW,2013-06-10 20:02:00,
2013-06-10 16:03:00,85.7,71.7,29.82,SSW,203,4.0,6.3,63,0.00,,,0.12,WUHU216HW,2013-06-10 20:03:00,
2013-06-10 16:04:00,85.7,71.7,29.82,South,185,3.3,6.3,63,0.00,,,0.12,WUHU216HW,2013-06-10 20:04:00,
2013-06-10 16:06:00,85.7,71.2,29.82,SE,135,2.7,4.0,62,0.00,,,0.12,WUHU216HW,2013-06-10 20:06:00,
2013-06-10 16:07:00,85.5,70.6,29.82,SSE,158,3.4,4.0,61,0.00,,,0.12,WUHU216HW,2013-06-10 20:07:00,
2013-06-10 16:08:00,85.5,70.6,29.82,SSE,158,3.4,4.0,61,0.00,,,0.12,WUHU216HW,2013-06-10 20:08:00,
2013-06-10 16:09:00,85.1,70.7,29.82,SSE,158,2.4,4.3,62,0.00,,,0.12,WUHU216HW,2013-06-10 20:09:00,
2013-06-10 16:12:00,85.0,70.9,29.82,SSE,158,2.8,4.3,63,0.00,,,0.12,WUHU216HW,2013-06-10 20:12:00,
2013-06-10 16:13:00,85.0,70.9,29.81,SSE,158,1.2,4.3,63,0.00,,,0.12,WUHU216HW,2013-06-10 20:13:00,
2013-06-10 16:14:00,85.0,71.5,29.81,SE,135,3.8,4.3,64,0.00,,,0.12,WUHU216HW,2013-06-10 20:14:00,
2013-06-10 16:17:00,85.5,71.9,29.81,East,90,2.5,4.3,64,0.00,,,0.12,WUHU216HW,2013-06-10 20:17:00,
2013-06-10 16:18:00,85.5,71.5,29.81,ESE,113,3.1,4.3,63,0.00,,,0.12,WUHU216HW,2013-06-10 20:18:00,
2013-06-10 16:19:00,85.7,71.2,29.81,SSE,158,5.4,5.4,62,0.00,,,0.12,WUHU216HW,2013-06-10 20:19:00,
2013-06-10 16:20:00,85.7,71.7,29.81,SSE,168,3.6,5.4,63,0.00,,,0.12,WUHU216HW,2013-06-10 20:20:00,
2013-06-10 16:21:00,85.7,71.7,29.81,SSE,168,3.6,5.4,63,0.00,,,0.12,WUHU216HW,2013-06-10 20:21:00,
2013-06-10 16:23:00,85.7,71.2,29.81,SSE,155,4.6,5.4,62,0.00,,,0.12,WUHU216HW,2013-06-10 20:23:00,
2013-06-10 16:24:00,85.7,71.2,29.81,SSE,155,4.6,5.4,62,0.00,,,0.12,WUHU216HW,2013-06-10 20:24:00,
2013-06-10 16:26:00,85.7,70.8,29.81,South,180,4.3,5.4,61,0.00,,,0.12,WUHU216HW,2013-06-10 20:26:00,
2013-06-10 16:27:00,85.5,71.0,29.81,SSW,203,4.3,5.4,62,0.00,,,0.12,WUHU216HW,2013-06-10 20:27:00,
2013-06-10 16:29:00,85.5,71.0,29.81,South,180,4.7,5.4,62,0.00,,,0.12,WUHU216HW,2013-06-10 20:29:00,
2013-06-10 16:31:00,85.3,70.8,29.81,SW,225,5.3,6.3,62,0.00,,,0.12,WUHU216HW,2013-06-10 20:31:00,
2013-06-10 16:32:00,85.5,71.0,29.81,SSE,158,7.6,7.6,62,0.00,,,0.12,WUHU216HW,2013-06-10 20:32:00,
2013-06-10 16:33:00,85.3,70.4,29.81,South,180,8.7,8.7,61,0.00,,,0.12,WUHU216HW,2013-06-10 20:33:00,
2013-06-10 16:34:00,85.3,70.4,29.81,South,173,6.5,8.7,61,0.00,,,0.12,WUHU216HW,2013-06-10 20:34:00,
2013-06-10 16:35:00,85.3,70.4,29.81,South,173,6.5,8.7,61,0.00,,,0.12,WUHU216HW,2013-06-10 20:35:00,
2013-06-10 16:36:00,85.3,70.4,29.81,SSW,203,4.7,8.7,61,0.00,,,0.12,WUHU216HW,2013-06-10 20:36:00,
2013-06-10 16:38:00,85.0,70.0,29.81,South,191,3.7,8.7,61,0.00,,,0.12,WUHU216HW,2013-06-10 20:38:00,
2013-06-10 16:40:00,85.0,70.5,29.81,SSW,203,2.5,8.7,62,0.00,,,0.12,WUHU216HW,2013-06-10 20:40:00,
2013-06-10 16:42:00,85.0,70.5,29.80,SSW,203,4.0,8.7,62,0.00,,,0.12,WUHU216HW,2013-06-10 20:42:00,
2013-06-10 16:44:00,85.0,70.5,29.80,South,180,4.7,5.4,62,0.00,,,0.12,WUHU216HW,2013-06-10 20:44:00,
2013-06-10 16:45:00,85.0,70.5,29.80,SSW,200,3.4,5.4,62,0.00,,,0.12,WUHU216HW,2013-06-10 20:45:00,
2013-06-10 16:48:00,85.0,70.0,29.80,SSW,203,3.6,4.7,61,0.00,,,0.12,WUHU216HW,2013-06-10 20:48:00,
2013-06-10 16:50:00,84.8,69.8,29.80,SSE,161,3.2,4.7,61,0.00,,,0.12,WUHU216HW,2013-06-10 20:50:00,
2013-06-10 16:51:00,84.8,70.4,29.80,South,180,4.7,4.7,62,0.00,,,0.12,WUHU216HW,2013-06-10 20:51:00,
2013-06-10 16:53:00,84.8,69.8,29.80,SSW,203,6.7,6.7,61,0.00,,,0.12,WUHU216HW,2013-06-10 20:53:00,
2013-06-10 16:54:00,84.8,69.8,29.80,SSW,203,6.7,6.7,61,0.00,,,0.12,WUHU216HW,2013-06-10 20:54:00,
2013-06-10 16:55:00,84.6,69.8,29.80,SSE,158,6.7,6.7,61,0.00,,,0.12,WUHU216HW,2013-06-10 20:55:00,
2013-06-10 16:56:00,84.6,69.8,29.80,SSE,158,6.7,6.7,61,0.00,,,0.12,WUHU216HW,2013-06-10 20:56:00,
2013-06-10 16:57:00,84.6,69.8,29.80,SSE,158,4.6,6.7,61,0.00,,,0.12,WUHU216HW,2013-06-10 20:57:00,
2013-06-10 16:59:00,84.6,69.8,29.80,SE,141,3.0,6.7,61,0.00,,,0.12,WUHU216HW,2013-06-10 20:59:00,
2013-06-10 17:01:00,84.6,70.2,29.80,SSE,162,5.7,6.7,62,0.00,,,0.12,WUHU216HW,2013-06-10 21:01:00,
2013-06-10 17:02:00,84.6,70.2,29.80,South,188,2.8,6.7,62,0.00,,,0.12,WUHU216HW,2013-06-10 21:02:00,
2013-06-10 17:03:00,84.8,70.8,29.80,South,180,3.4,6.7,63,0.00,,,0.12,WUHU216HW,2013-06-10 21:03:00,
2013-06-10 17:05:00,84.8,70.8,29.80,SSW,201,3.3,6.7,63,0.00,,,0.12,WUHU216HW,2013-06-10 21:05:00,
2013-06-10 17:06:00,85.0,70.9,29.80,SSE,158,3.4,6.7,63,0.00,,,0.12,WUHU216HW,2013-06-10 21:06:00,
2013-06-10 17:07:00,85.0,70.5,29.80,SSW,205,3.0,6.7,62,0.00,,,0.12,WUHU216HW,2013-06-10 21:07:00,
2013-06-10 17:09:00,84.6,69.8,29.80,South,180,4.5,6.7,61,0.00,,,0.12,WUHU216HW,2013-06-10 21:09:00,
2013-06-10 17:11:00,84.6,69.3,29.80,South,173,3.6,4.7,60,0.00,,,0.12,WUHU216HW,2013-06-10 21:11:00,
2013-06-10 17:12:00,84.4,69.6,29.81,SSW,203,2.3,4.7,61,0.00,,,0.12,WUHU216HW,2013-06-10 21:12:00,
2013-06-10 17:14:00,84.2,69.4,29.81,South,176,4.1,4.7,61,0.00,,,0.12,WUHU216HW,2013-06-10 21:14:00,
2013-06-10 17:15:00,84.2,68.9,29.81,SSW,203,4.3,4.7,60,0.00,,,0.12,WUHU216HW,2013-06-10 21:15:00,
2013-06-10 17:17:00,84.1,68.8,29.80,SSE,166,3.4,4.7,60,0.00,,,0.12,WUHU216HW,2013-06-10 21:17:00,
2013-06-10 17:19:00,84.1,69.2,29.81,South,182,1.9,4.7,61,0.00,,,0.12,WUHU216HW,2013-06-10 21:19:00,
2013-06-10 17:20:00,83.7,68.9,29.80,SSE,165,3.3,4.7,61,0.00,,,0.12,WUHU216HW,2013-06-10 21:20:00,
2013-06-10 17:22:00,83.7,69.3,29.80,SW,229,3.3,4.7,62,0.00,,,0.12,WUHU216HW,2013-06-10 21:22:00,
2013-06-10 17:23:00,83.5,69.1,29.80,SSW,203,3.6,4.7,62,0.00,,,0.12,WUHU216HW,2013-06-10 21:23:00,
2013-06-10 17:24:00,83.7,69.8,29.80,SSW,203,3.0,4.7,63,0.00,,,0.12,WUHU216HW,2013-06-10 21:24:00,
2013-06-10 17:25:00,83.5,69.1,29.81,South,180,3.4,4.7,62,0.00,,,0.12,WUHU216HW,2013-06-10 21:25:00,
2013-06-10 17:28:00,83.5,69.6,29.81,SE,135,2.5,4.7,63,0.00,,,0.12,WUHU216HW,2013-06-10 21:28:00,
2013-06-10 17:29:00,83.5,69.6,29.81,SE,135,2.5,4.7,63,0.00,,,0.12,WUHU216HW,2013-06-10 21:29:00,
2013-06-10 17:30:00,83.5,69.1,29.80,SW,234,1.8,4.7,62,0.00,,,0.12,WUHU216HW,2013-06-10 21:30:00,
2013-06-10 17:31:00,83.5,69.6,29.81,SW,225,2.9,4.3,63,0.00,,,0.12,WUHU216HW,2013-06-10 21:31:00,
2013-06-10 17:34:00,83.5,69.6,29.80,SE,145,3.3,5.4,63,0.00,,,0.12,WUHU216HW,2013-06-10 21:34:00,
2013-06-10 17:35:00,83.5,69.6,29.80,ESE,113,1.8,5.4,63,0.00,,,0.12,WUHU216HW,2013-06-10 21:35:00,
2013-06-10 17:36:00,83.5,69.6,29.81,SSE,160,5.6,6.3,63,0.00,,,0.12,WUHU216HW,2013-06-10 21:36:00,
2013-06-10 17:37:00,83.5,69.6,29.81,SSE,160,5.6,6.3,63,0.00,,,0.12,WUHU216HW,2013-06-10 21:37:00,
2013-06-10 17:39:00,83.3,69.4,29.81,SW,230,2.8,6.3,63,0.00,,,0.12,WUHU216HW,2013-06-10 21:39:00,
2013-06-10 17:40:00,83.3,69.4,29.81,East,90,2.7,6.3,63,0.00,,,0.12,WUHU216HW,2013-06-10 21:40:00,
2013-06-10 17:42:00,83.2,69.2,29.81,West,270,4.9,6.3,63,0.00,,,0.12,WUHU216HW,2013-06-10 21:42:00,
2013-06-10 17:45:00,83.0,68.6,29.81,SSW,203,6.3,6.3,62,0.00,,,0.12,WUHU216HW,2013-06-10 21:45:00,
2013-06-10 17:46:00,83.0,68.1,29.81,South,183,5.5,6.3,61,0.00,,,0.12,WUHU216HW,2013-06-10 21:46:00,
2013-06-10 17:47:00,83.0,68.1,29.81,SSE,167,4.1,6.3,61,0.00,,,0.12,WUHU216HW,2013-06-10 21:47:00,
2013-06-10 17:48:00,83.0,68.1,29.81,SSE,167,4.1,6.3,61,0.00,,,0.12,WUHU216HW,2013-06-10 21:48:00,
2013-06-10 17:51:00,82.8,68.4,29.81,WSW,248,1.8,6.3,62,0.00,,,0.12,WUHU216HW,2013-06-10 21:51:00,
2013-06-10 17:52:00,82.8,68.4,29.81,WSW,248,1.8,6.3,62,0.00,,,0.12,WUHU216HW,2013-06-10 21:52:00,
2013-06-10 17:53:00,83.0,68.6,29.81,WSW,240,1.3,6.3,62,0.00,,,0.12,WUHU216HW,2013-06-10 21:53:00,
2013-06-10 17:56:00,82.8,68.4,29.81,South,189,2.0,3.4,62,0.00,,,0.12,WUHU216HW,2013-06-10 21:56:00,
2013-06-10 17:58:00,82.8,68.4,29.81,SSE,158,2.7,3.4,62,0.00,,,0.12,WUHU216HW,2013-06-10 21:58:00,
2013-06-10 17:59:00,82.8,68.4,29.81,SSE,158,1.9,3.4,62,0.00,,,0.12,WUHU216HW,2013-06-10 21:59:00,
2013-06-10 18:02:00,82.6,68.2,29.81,SSE,158,4.7,6.9,62,0.00,,,0.12,WUHU216HW,2013-06-10 22:02:00,
2013-06-10 18:03:00,82.6,68.2,29.80,SSE,166,3.8,6.9,62,0.00,,,0.12,WUHU216HW,2013-06-10 22:03:00,
2013-06-10 18:04:00,82.6,68.2,29.80,SSW,209,2.2,6.9,62,0.00,,,0.12,WUHU216HW,2013-06-10 22:04:00,
2013-06-10 18:05:00,82.6,68.2,29.80,SW,231,1.9,6.9,62,0.00,,,0.12,WUHU216HW,2013-06-10 22:05:00,
2013-06-10 18:08:00,82.4,68.5,29.80,WSW,256,2.9,6.9,63,0.00,,,0.12,WUHU216HW,2013-06-10 22:08:00,
2013-06-10 18:09:00,82.4,68.0,29.80,SE,135,2.7,6.9,62,0.00,,,0.12,WUHU216HW,2013-06-10 22:09:00,
2013-06-10 18:10:00,82.4,68.0,29.80,SSW,203,3.4,4.7,62,0.00,,,0.12,WUHU216HW,2013-06-10 22:10:00,
2013-06-10 18:11:00,82.4,68.0,29.80,South,186,2.3,4.7,62,0.00,,,0.12,WUHU216HW,2013-06-10 22:11:00,
2013-06-10 18:13:00,82.3,67.9,29.80,SE,135,2.4,4.0,62,0.00,,,0.12,WUHU216HW,2013-06-10 22:13:00,
2013-06-10 18:14:00,82.3,67.9,29.80,SSW,203,3.4,4.0,62,0.00,,,0.12,WUHU216HW,2013-06-10 22:14:00,
2013-06-10 18:15:00,82.3,67.9,29.80,SW,217,2.2,4.0,62,0.00,,,0.12,WUHU216HW,2013-06-10 22:15:00,
2013-06-10 18:16:00,82.1,68.1,29.80,West,270,1.1,3.6,63,0.00,,,0.12,WUHU216HW,2013-06-10 22:16:00,
2013-06-10 18:17:00,82.1,68.1,29.80,SW,225,1.8,3.4,63,0.00,,,0.12,WUHU216HW,2013-06-10 22:17:00,
2013-06-10 18:18:00,82.1,68.1,29.80,SSW,203,2.9,3.4,63,0.00,,,0.12,WUHU216HW,2013-06-10 22:18:00,
2013-06-10 18:20:00,82.1,68.1,29.80,SSE,158,4.3,5.4,63,0.00,,,0.12,WUHU216HW,2013-06-10 22:20:00,
2013-06-10 18:21:00,82.1,68.1,29.80,South,180,2.2,5.4,63,0.00,,,0.12,WUHU216HW,2013-06-10 22:21:00,
2013-06-10 18:22:00,82.1,68.1,29.80,South,180,2.2,5.4,63,0.00,,,0.12,WUHU216HW,2013-06-10 22:22:00,
2013-06-10 18:25:00,82.1,68.1,29.79,SSW,203,8.1,8.1,63,0.00,,,0.12,WUHU216HW,2013-06-10 22:25:00,
2013-06-10 18:27:00,81.9,68.1,29.79,SE,135,4.0,8.1,63,0.00,,,0.12,WUHU216HW,2013-06-10 22:27:00,
2013-06-10 18:28:00,81.9,68.1,29.79,SE,145,3.7,8.1,63,0.00,,,0.12,WUHU216HW,2013-06-10 22:28:00,
2013-06-10 18:31:00,81.7,67.9,29.79,East,90,4.5,8.1,63,0.00,,,0.12,WUHU216HW,2013-06-10 22:31:00,
2013-06-10 18:32:00,81.7,67.9,29.79,SSE,158,7.2,8.1,63,0.00,,,0.12,WUHU216HW,2013-06-10 22:32:00,
2013-06-10 18:34:00,81.7,67.4,29.79,SW,227,2.1,8.1,62,0.00,,,0.12,WUHU216HW,2013-06-10 22:34:00,
2013-06-10 18:35:00,81.7,67.4,29.79,SW,227,2.1,8.1,62,0.00,,,0.12,WUHU216HW,2013-06-10 22:35:00,
2013-06-10 18:36:00,81.5,67.2,29.79,SSE,158,6.2,8.5,62,0.00,,,0.12,WUHU216HW,2013-06-10 22:36:00,
2013-06-10 18:38:00,81.5,67.2,29.79,SSW,203,4.0,8.5,62,0.00,,,0.12,WUHU216HW,2013-06-10 22:38:00,
2013-06-10 18:40:00,81.5,67.7,29.78,SSW,203,4.0,8.5,63,0.00,,,0.12,WUHU216HW,2013-06-10 22:40:00,
2013-06-10 18:41:00,81.5,67.7,29.78,West,270,5.1,8.5,63,0.00,,,0.12,WUHU216HW,2013-06-10 22:41:00,
2013-06-10 18:42:00,81.4,67.1,29.78,WSW,255,3.3,8.5,62,0.00,,,0.12,WUHU216HW,2013-06-10 22:42:00,
2013-06-10 18:43:00,81.4,67.1,29.78,SW,232,1.5,8.5,62,0.00,,,0.12,WUHU216HW,2013-06-10 22:43:00,
2013-06-10 18:45:00,81.4,67.5,29.78,SW,217,2.3,5.1,63,0.00,,,0.12,WUHU216HW,2013-06-10 22:45:00,
2013-06-10 18:46:00,81.4,67.5,29.78,SE,135,3.1,5.1,63,0.00,,,0.12,WUHU216HW,2013-06-10 22:46:00,
2013-06-10 18:47:00,81.4,67.5,29.78,SSE,159,2.4,5.1,63,0.00,,,0.12,WUHU216HW,2013-06-10 22:47:00,
2013-06-10 18:49:00,81.4,68.0,29.78,SSW,203,3.8,5.1,64,0.00,,,0.12,WUHU216HW,2013-06-10 22:49:00,
2013-06-10 18:50:00,81.4,68.0,29.78,SSW,203,3.8,5.1,64,0.00,,,0.12,WUHU216HW,2013-06-10 22:50:00,
2013-06-10 18:51:00,81.2,67.8,29.78,South,184,2.5,5.1,64,0.00,,,0.12,WUHU216HW,2013-06-10 22:51:00,
2013-06-10 18:53:00,81.2,67.3,29.78,WSW,241,2.1,3.8,63,0.00,,,0.12,WUHU216HW,2013-06-10 22:53:00,
2013-06-10 18:54:00,81.2,67.8,29.78,South,180,4.3,4.3,64,0.00,,,0.12,WUHU216HW,2013-06-10 22:54:00,
2013-06-10 18:56:00,81.0,67.2,29.78,South,188,3.3,4.3,63,0.00,,,0.12,WUHU216HW,2013-06-10 22:56:00,
2013-06-10 18:58:00,81.2,67.3,29.78,SW,216,2.8,4.7,63,0.00,,,0.12,WUHU216HW,2013-06-10 22:58:00,
2013-06-10 19:00:00,81.0,67.2,29.77,WNW,287,1.8,4.7,63,0.00,,,0.12,WUHU216HW,2013-06-10 23:00:00,
2013-06-10 19:02:00,81.0,67.7,29.78,SSW,204,3.5,4.7,64,0.00,,,0.12,WUHU216HW,2013-06-10 23:02:00,
2013-06-10 19:03:00,81.0,67.2,29.77,South,180,3.6,4.7,63,0.00,,,0.12,WUHU216HW,2013-06-10 23:03:00,
2013-06-10 19:04:00,81.0,67.2,29.77,South,171,3.0,4.7,63,0.00,,,0.12,WUHU216HW,2013-06-10 23:04:00,
2013-06-10 19:05:00,81.0,67.2,29.77,SSW,203,2.5,4.7,63,0.00,,,0.12,WUHU216HW,2013-06-10 23:05:00,
2013-06-10 19:07:00,80.8,67.1,29.78,SSW,203,3.4,4.0,63,0.00,,,0.12,WUHU216HW,2013-06-10 23:07:00,
2013-06-10 19:08:00,80.8,67.1,29.78,SSW,203,3.4,4.0,63,0.00,,,0.12,WUHU216HW,2013-06-10 23:08:00,
2013-06-10 19:09:00,80.8,67.1,29.78,SSW,213,2.3,4.0,63,0.00,,,0.12,WUHU216HW,2013-06-10 23:09:00,
2013-06-10 19:12:00,80.6,66.9,29.78,South,180,1.9,3.6,63,0.00,,,0.12,WUHU216HW,2013-06-10 23:12:00,
2013-06-10 19:13:00,80.6,67.3,29.78,SSE,158,4.3,4.3,64,0.00,,,0.12,WUHU216HW,2013-06-10 23:13:00,
2013-06-10 19:14:00,80.6,66.9,29.78,SE,143,3.3,4.3,63,0.00,,,0.12,WUHU216HW,2013-06-10 23:14:00,
2013-06-10 19:16:00,80.6,66.9,29.78,SW,225,5.4,5.4,63,0.00,,,0.12,WUHU216HW,2013-06-10 23:16:00,
2013-06-10 19:18:00,80.5,66.7,29.79,WNW,284,2.0,5.4,63,0.00,,,0.12,WUHU216HW,2013-06-10 23:18:00,
2013-06-10 19:20:00,80.5,67.1,29.79,SSW,203,1.3,5.4,64,0.00,,,0.12,WUHU216HW,2013-06-10 23:20:00,
2013-06-10 19:21:00,80.5,67.1,29.79,SSW,203,1.6,5.4,64,0.00,,,0.12,WUHU216HW,2013-06-10 23:21:00,
2013-06-10 19:22:00,80.5,66.7,29.79,SSW,213,1.5,5.4,63,0.00,,,0.12,WUHU216HW,2013-06-10 23:22:00,
2013-06-10 19:23:00,80.5,66.7,29.79,WSW,239,0.8,5.4,63,0.00,,,0.12,WUHU216HW,2013-06-10 23:23:00,
2013-06-10 19:25:00,80.5,67.1,29.79,SW,225,2.5,5.4,64,0.00,,,0.12,WUHU216HW,2013-06-10 23:25:00,
2013-06-10 19:27:00,80.5,67.1,29.79,South,190,2.3,2.5,64,0.00,,,0.12,WUHU216HW,2013-06-10 23:27:00,
2013-06-10 19:28:00,80.5,67.1,29.79,SW,228,1.6,2.5,64,0.00,,,0.12,WUHU216HW,2013-06-10 23:28:00,
2013-06-10 19:31:00,80.3,67.0,29.79,SSE,158,2.0,2.5,64,0.00,,,0.12,WUHU216HW,2013-06-10 23:31:00,
2013-06-10 19:33:00,80.3,67.0,29.79,SSW,203,1.1,2.5,64,0.00,,,0.12,WUHU216HW,2013-06-10 23:33:00,
2013-06-10 19:35:00,80.3,67.0,29.79,SSE,158,1.1,2.5,64,0.00,,,0.12,WUHU216HW,2013-06-10 23:35:00,
2013-06-10 19:38:00,80.1,66.8,29.79,NW,315,1.6,2.0,64,0.00,,,0.12,WUHU216HW,2013-06-10 23:38:00,
2013-06-10 19:39:00,79.9,67.1,29.79,NW,315,1.4,2.0,65,0.00,,,0.12,WUHU216HW,2013-06-10 23:39:00,
2013-06-10 19:40:00,79.9,67.1,29.79,SE,135,1.0,2.0,65,0.00,,,0.12,WUHU216HW,2013-06-10 23:40:00,
2013-06-10 19:43:00,79.9,67.1,29.79,SW,225,1.1,1.6,65,0.00,,,0.12,WUHU216HW,2013-06-10 23:43:00,
2013-06-10 19:44:00,79.7,66.9,29.78,SW,225,1.1,1.6,65,0.00,,,0.12,WUHU216HW,2013-06-10 23:44:00,
2013-06-10 19:45:00,79.7,66.9,29.79,South,180,1.3,1.6,65,0.00,,,0.12,WUHU216HW,2013-06-10 23:45:00,
2013-06-10 19:47:00,79.6,66.8,29.79,SW,235,2.5,4.0,65,0.00,,,0.12,WUHU216HW,2013-06-10 23:47:00,
2013-06-10 19:48:00,79.6,66.8,29.79,South,180,0.9,4.0,65,0.00,,,0.12,WUHU216HW,2013-06-10 23:48:00,
2013-06-10 19:49:00,79.6,66.8,29.79,WSW,248,1.8,4.0,65,0.00,,,0.12,WUHU216HW,2013-06-10 23:49:00,
2013-06-10 19:50:00,79.6,66.8,29.79,SW,216,1.5,4.0,65,0.00,,,0.12,WUHU216HW,2013-06-10 23:50:00,
2013-06-10 19:51:00,79.4,66.6,29.79,SSE,158,1.1,4.0,65,0.00,,,0.12,WUHU216HW,2013-06-10 23:51:00,
2013-06-10 19:52:00,79.4,67.1,29.79,SSW,203,2.0,4.0,66,0.00,,,0.12,WUHU216HW,2013-06-10 23:52:00,
2013-06-10 19:54:00,79.2,66.9,29.79,SSW,212,1.1,4.0,66,0.00,,,0.12,WUHU216HW,2013-06-10 23:54:00,
2013-06-10 19:56:00,79.2,66.9,29.79,West,270,2.0,2.0,66,0.00,,,0.12,WUHU216HW,2013-06-10 23:56:00,
2013-06-10 19:58:00,79.0,66.7,29.79,WSW,248,1.1,2.0,66,0.00,,,0.12,WUHU216HW,2013-06-10 23:58:00,
2013-06-10 20:00:00,78.8,66.5,29.79,South,180,1.3,2.0,66,0.00,,,0.12,WUHU216HW,2013-06-11 00:00:00,
2013-06-10 20:03:00,78.7,66.8,29.79,SSW,203,0.4,2.0,67,0.00,,,0.12,WUHU216HW,2013-06-11 00:03:00,
2013-06-10 20:04:00,78.5,66.6,29.79,SSW,203,0.4,2.0,67,0.00,,,0.12,WUHU216HW,2013-06-11 00:04:00,
2013-06-10 20:06:00,78.3,66.4,29.79,SSE,158,0.0,1.6,67,0.00,,,0.12,WUHU216HW,2013-06-11 00:06:00,
2013-06-10 20:08:00,78.1,66.2,29.80,SSW,203,0.0,1.6,67,0.00,,,0.12,WUHU216HW,2013-06-11 00:08:00,
2013-06-10 20:09:00,78.1,66.2,29.79,SSW,203,0.0,1.3,67,0.00,,,0.12,WUHU216HW,2013-06-11 00:09:00,
2013-06-10 20:11:00,77.9,66.5,29.80,SSE,158,0.0,0.4,68,0.00,,,0.12,WUHU216HW,2013-06-11 00:11:00,
2013-06-10 20:14:00,77.8,66.3,29.80,SSE,158,0.0,0.0,68,0.00,,,0.12,WUHU216HW,2013-06-11 00:14:00,
2013-06-10 20:16:00,77.6,66.6,29.80,SSE,158,0.0,0.0,69,0.00,,,0.12,WUHU216HW,2013-06-11 00:16:00,
2013-06-10 20:18:00,77.4,66.5,29.80,SSE,158,0.0,0.0,69,0.00,,,0.12,WUHU216HW,2013-06-11 00:18:00,
2013-06-10 20:19:00,77.4,66.5,29.80,SSE,158,0.0,0.0,69,0.00,,,0.12,WUHU216HW,2013-06-11 00:19:00,
2013-06-10 20:21:00,77.2,66.8,29.80,SW,225,0.0,0.0,70,0.00,,,0.12,WUHU216HW,2013-06-11 00:21:00,
2013-06-10 20:22:00,77.2,66.8,29.80,SSW,203,0.0,0.0,70,0.00,,,0.12,WUHU216HW,2013-06-11 00:22:00,
2013-06-10 20:23:00,77.0,66.6,29.79,SSW,203,0.0,0.0,70,0.00,,,0.12,WUHU216HW,2013-06-11 00:23:00,
2013-06-10 20:24:00,77.0,66.6,29.79,SSW,203,0.0,0.0,70,0.00,,,0.12,WUHU216HW,2013-06-11 00:24:00,
2013-06-10 20:27:00,76.7,66.2,29.80,SSW,203,0.0,0.0,70,0.00,,,0.12,WUHU216HW,2013-06-11 00:27:00,
2013-06-10 20:28:00,76.7,66.2,29.80,SSW,203,0.0,0.0,70,0.00,,,0.12,WUHU216HW,2013-06-11 00:28:00,
2013-06-10 20:29:00,76.7,66.2,29.80,SW,225,0.0,0.0,70,0.00,,,0.12,WUHU216HW,2013-06-11 00:29:00,
2013-06-10 20:30:00,76.5,66.4,29.79,SW,225,0.0,0.0,71,0.00,,,0.12,WUHU216HW,2013-06-11 00:30:00,
2013-06-10 20:33:00,76.3,66.2,29.79,SSW,203,0.4,0.4,71,0.00,,,0.12,WUHU216HW,2013-06-11 00:33:00,
2013-06-10 20:35:00,76.1,66.1,29.79,SE,135,0.4,0.4,71,0.00,,,0.12,WUHU216HW,2013-06-11 00:35:00,
2013-06-10 20:36:00,76.0,65.9,29.79,SE,135,0.4,0.4,71,0.00,,,0.12,WUHU216HW,2013-06-11 00:36:00,
2013-06-10 20:38:00,76.0,65.9,29.80,SE,135,0.0,0.4,71,0.00,,,0.12,WUHU216HW,2013-06-11 00:38:00,
2013-06-10 20:41:00,76.0,65.9,29.79,SE,135,1.1,1.1,71,0.00,,,0.12,WUHU216HW,2013-06-11 00:41:00,
2013-06-10 20:42:00,75.8,65.7,29.79,SE,135,0.9,1.1,71,0.00,,,0.12,WUHU216HW,2013-06-11 00:42:00,
2013-06-10 20:43:00,75.8,66.2,29.79,SE,135,0.7,1.1,72,0.00,,,0.12,WUHU216HW,2013-06-11 00:43:00,
2013-06-10 20:47:00,75.6,66.0,29.79,SSE,158,0.8,1.1,72,0.00,,,0.12,WUHU216HW,2013-06-11 00:47:00,
2013-06-10 20:48:00,75.4,65.8,29.80,SSE,158,0.6,1.1,72,0.00,,,0.12,WUHU216HW,2013-06-11 00:48:00,
2013-06-10 20:49:00,75.4,66.2,29.80,SSE,158,0.7,1.1,73,0.00,,,0.12,WUHU216HW,2013-06-11 00:49:00,
2013-06-10 20:52:00,75.2,66.0,29.80,SSE,158,1.3,1.3,73,0.00,,,0.12,WUHU216HW,2013-06-11 00:52:00,
2013-06-10 20:53:00,75.2,66.0,29.80,SSE,158,0.8,1.3,73,0.00,,,0.12,WUHU216HW,2013-06-11 00:53:00,
2013-06-10 20:54:00,75.1,66.3,29.80,SSE,158,1.6,1.6,74,0.00,,,0.12,WUHU216HW,2013-06-11 00:54:00,
2013-06-10 20:55:00,75.1,66.3,29.80,SSE,158,1.1,1.6,74,0.00,,,0.12,WUHU216HW,2013-06-11 00:55:00,
2013-06-10 20:57:00,74.9,66.1,29.80,SSE,158,0.8,1.6,74,0.00,,,0.12,WUHU216HW,2013-06-11 00:57:00,
2013-06-10 20:59:00,74.9,66.1,29.80,SSE,158,1.3,1.6,74,0.00,,,0.12,WUHU216HW,2013-06-11 00:59:00,
2013-06-10 21:00:00,74.7,65.9,29.80,SSE,158,1.8,1.8,74,0.00,,,0.12,WUHU216HW,2013-06-11 01:00:00,
2013-06-10 21:03:00,74.5,66.1,29.80,SE,144,1.5,1.8,75,0.00,,,0.12,WUHU216HW,2013-06-11 01:03:00,
2013-06-10 21:04:00,74.5,66.1,29.80,SSE,158,1.0,1.8,75,0.00,,,0.12,WUHU216HW,2013-06-11 01:04:00,
2013-06-10 21:05:00,74.5,66.1,29.80,SSE,158,1.8,1.8,75,0.00,,,0.12,WUHU216HW,2013-06-11 01:05:00,
2013-06-10 21:07:00,74.5,66.1,29.80,SE,135,0.9,1.8,75,0.00,,,0.12,WUHU216HW,2013-06-11 01:07:00,
2013-06-10 21:08:00,74.3,65.9,29.80,South,180,1.6,1.8,75,0.00,,,0.12,WUHU216HW,2013-06-11 01:08:00,
2013-06-10 21:09:00,74.3,65.9,29.80,SSE,158,1.8,1.8,75,0.00,,,0.12,WUHU216HW,2013-06-11 01:09:00,
2013-06-10 21:10:00,74.3,65.9,29.80,South,180,2.5,2.5,75,0.00,,,0.12,WUHU216HW,2013-06-11 01:10:00,
2013-06-10 21:12:00,74.2,65.8,29.80,SSE,167,1.8,2.5,75,0.00,,,0.12,WUHU216HW,2013-06-11 01:12:00,
2013-06-10 21:15:00,74.0,65.6,29.80,South,180,1.8,2.5,75,0.00,,,0.12,WUHU216HW,2013-06-11 01:15:00,
2013-06-10 21:16:00,74.0,66.0,29.80,SSE,158,1.8,2.5,76,0.00,,,0.12,WUHU216HW,2013-06-11 01:16:00,
2013-06-10 21:17:00,73.8,65.8,29.80,SSW,203,1.8,2.5,76,0.00,,,0.12,WUHU216HW,2013-06-11 01:17:00,
2013-06-10 21:20:00,73.8,65.8,29.80,SSE,164,1.5,2.5,76,0.00,,,0.12,WUHU216HW,2013-06-11 01:20:00,
2013-06-10 21:21:00,73.8,65.8,29.81,SE,135,0.8,2.5,76,0.00,,,0.12,WUHU216HW,2013-06-11 01:21:00,
2013-06-10 21:22:00,73.8,65.8,29.80,SE,135,0.7,2.5,76,0.00,,,0.12,WUHU216HW,2013-06-11 01:22:00,
2013-06-10 21:23:00,73.6,65.6,29.81,SSE,158,1.8,2.5,76,0.00,,,0.12,WUHU216HW,2013-06-11 01:23:00,
2013-06-10 21:24:00,73.6,65.6,29.81,SSE,158,1.8,2.5,76,0.00,,,0.12,WUHU216HW,2013-06-11 01:24:00,
2013-06-10 21:25:00,73.6,65.6,29.81,SSE,158,1.1,2.5,76,0.00,,,0.12,WUHU216HW,2013-06-11 01:25:00,
2013-06-10 21:26:00,73.6,65.6,29.81,SW,225,0.4,2.5,76,0.00,,,0.12,WUHU216HW,2013-06-11 01:26:00,
2013-06-10 21:27:00,73.4,65.8,29.80,SSW,203,1.6,2.5,77,0.00,,,0.12,WUHU216HW,2013-06-11 01:27:00,
2013-06-10 21:28:00,73.4,65.8,29.81,SSW,198,0.9,2.0,77,0.00,,,0.12,WUHU216HW,2013-06-11 01:28:00,
2013-06-10 21:29:00,73.4,65.8,29.80,SE,135,1.1,1.8,77,0.00,,,0.12,WUHU216HW,2013-06-11 01:29:00,
2013-06-10 21:30:00,73.3,65.6,29.80,SSE,158,1.1,1.8,77,0.00,,,0.12,WUHU216HW,2013-06-11 01:30:00,
2013-06-10 21:31:00,73.1,65.4,29.80,SSE,158,1.1,1.8,77,0.00,,,0.12,WUHU216HW,2013-06-11 01:31:00,
2013-06-10 21:33:00,73.1,65.4,29.80,SSE,158,1.3,1.8,77,0.00,,,0.12,WUHU216HW,2013-06-11 01:33:00,
2013-06-10 21:34:00,73.1,65.9,29.80,SSE,158,1.3,1.8,78,0.00,,,0.12,WUHU216HW,2013-06-11 01:34:00,
2013-06-10 21:36:00,72.9,65.7,29.81,SSE,158,0.8,1.8,78,0.00,,,0.12,WUHU216HW,2013-06-11 01:36:00,
2013-06-10 21:37:00,72.9,65.7,29.81,SSE,158,0.4,1.8,78,0.00,,,0.12,WUHU216HW,2013-06-11 01:37:00,
2013-06-10 21:38:00,72.7,65.5,29.81,SSE,158,0.0,1.8,78,0.00,,,0.12,WUHU216HW,2013-06-11 01:38:00,
2013-06-10 21:39:00,72.7,65.5,29.81,SSE,158,0.0,1.8,78,0.00,,,0.12,WUHU216HW,2013-06-11 01:39:00,
2013-06-10 21:40:00,72.7,65.5,29.81,SSE,158,0.0,1.8,78,0.00,,,0.12,WUHU216HW,2013-06-11 01:40:00,
2013-06-10 21:41:00,72.5,65.4,29.81,SSE,158,0.0,1.8,78,0.00,,,0.12,WUHU216HW,2013-06-11 01:41:00,
2013-06-10 21:42:00,72.5,65.4,29.81,SSE,158,0.0,1.3,78,0.00,,,0.12,WUHU216HW,2013-06-11 01:42:00,
2013-06-10 21:44:00,72.4,64.7,29.81,SSE,158,0.4,0.4,77,0.00,,,0.12,WUHU216HW,2013-06-11 01:44:00,
2013-06-10 21:46:00,72.4,65.2,29.81,SE,135,1.1,1.1,78,0.00,,,0.12,WUHU216HW,2013-06-11 01:46:00,
2013-06-10 21:47:00,72.4,65.2,29.81,SE,135,1.1,1.1,78,0.00,,,0.12,WUHU216HW,2013-06-11 01:47:00,
2013-06-10 21:49:00,72.2,65.0,29.81,SSE,158,1.1,1.1,78,0.00,,,0.12,WUHU216HW,2013-06-11 01:49:00,
2013-06-10 21:50:00,72.2,65.0,29.81,SE,135,1.1,1.1,78,0.00,,,0.12,WUHU216HW,2013-06-11 01:50:00,
2013-06-10 21:51:00,72.2,65.0,29.81,SE,135,1.1,1.1,78,0.00,,,0.12,WUHU216HW,2013-06-11 01:51:00,
2013-06-10 21:52:00,72.0,64.8,29.81,SE,135,0.6,1.1,78,0.00,,,0.12,WUHU216HW,2013-06-11 01:52:00,
2013-06-10 21:53:00,72.0,64.8,29.81,SE,135,0.4,1.1,78,0.00,,,0.12,WUHU216HW,2013-06-11 01:53:00,
2013-06-10 21:55:00,72.0,64.8,29.81,SSE,158,0.2,1.1,78,0.00,,,0.12,WUHU216HW,2013-06-11 01:55:00,
2013-06-10 21:56:00,72.0,64.8,29.81,SSE,158,0.0,1.1,78,0.00,,,0.12,WUHU216HW,2013-06-11 01:56:00,
2013-06-10 21:58:00,71.8,65.0,29.81,SE,145,1.0,1.1,79,0.00,,,0.12,WUHU216HW,2013-06-11 01:58:00,
2013-06-10 21:59:00,71.8,65.0,29.82,SSE,158,0.6,1.1,79,0.00,,,0.12,WUHU216HW,2013-06-11 01:59:00,
2013-06-10 22:01:00,71.6,64.8,29.82,SSE,158,0.0,1.1,79,0.00,,,0.12,WUHU216HW,2013-06-11 02:01:00,
2013-06-10 22:03:00,71.6,64.8,29.82,SSE,158,0.7,1.1,79,0.00,,,0.12,WUHU216HW,2013-06-11 02:03:00,
2013-06-10 22:06:00,71.6,64.8,29.82,SSE,158,0.4,1.1,79,0.00,,,0.12,WUHU216HW,2013-06-11 02:06:00,
2013-06-10 22:07:00,71.5,64.6,29.82,SSE,158,0.0,0.9,79,0.00,,,0.12,WUHU216HW,2013-06-11 02:07:00,
2013-06-10 22:08:00,71.5,65.0,29.82,SSE,158,0.0,0.7,80,0.00,,,0.12,WUHU216HW,2013-06-11 02:08:00,
2013-06-10 22:12:00,71.3,64.8,29.82,SSE,158,0.0,0.7,80,0.00,,,0.12,WUHU216HW,2013-06-11 02:12:00,
2013-06-10 22:13:00,71.3,64.8,29.82,SSE,158,0.0,0.4,80,0.00,,,0.12,WUHU216HW,2013-06-11 02:13:00,
2013-06-10 22:14:00,71.1,64.6,29.82,SSE,158,0.0,0.4,80,0.00,,,0.12,WUHU216HW,2013-06-11 02:14:00,
2013-06-10 22:17:00,71.1,64.6,29.82,SSE,158,0.2,0.2,80,0.00,,,0.12,WUHU216HW,2013-06-11 02:17:00,
2013-06-10 22:19:00,70.9,64.4,29.82,SSE,158,0.6,0.7,80,0.00,,,0.12,WUHU216HW,2013-06-11 02:19:00,
2013-06-10 22:20:00,70.9,64.4,29.82,SSE,158,0.4,0.7,80,0.00,,,0.12,WUHU216HW,2013-06-11 02:20:00,
2013-06-10 22:22:00,70.9,64.4,29.83,SSE,158,1.1,1.1,80,0.00,,,0.12,WUHU216HW,2013-06-11 02:22:00,
2013-06-10 22:24:00,70.9,64.4,29.83,South,172,0.6,1.1,80,0.00,,,0.12,WUHU216HW,2013-06-11 02:24:00,
2013-06-10 22:25:00,70.7,64.3,29.83,SSE,158,0.7,1.1,80,0.00,,,0.12,WUHU216HW,2013-06-11 02:25:00,
2013-06-10 22:26:00,70.7,64.3,29.83,SSE,158,0.6,1.1,80,0.00,,,0.12,WUHU216HW,2013-06-11 02:26:00,
2013-06-10 22:28:00,70.7,64.3,29.83,SSE,158,0.9,1.1,80,0.00,,,0.12,WUHU216HW,2013-06-11 02:28:00,
2013-06-10 22:29:00,70.6,64.5,29.83,SSE,158,1.1,1.1,81,0.00,,,0.12,WUHU216HW,2013-06-11 02:29:00,
2013-06-10 22:30:00,70.6,64.5,29.83,SSE,158,0.8,1.1,81,0.00,,,0.12,WUHU216HW,2013-06-11 02:30:00,
2013-06-10 22:31:00,70.6,64.5,29.83,SSE,158,0.3,1.1,81,0.00,,,0.12,WUHU216HW,2013-06-11 02:31:00,
2013-06-10 22:32:00,70.6,64.5,29.83,SSE,158,0.2,1.1,81,0.00,,,0.12,WUHU216HW,2013-06-11 02:32:00,
2013-06-10 22:33:00,70.4,64.3,29.83,SSE,158,0.7,1.1,81,0.00,,,0.12,WUHU216HW,2013-06-11 02:33:00,
2013-06-10 22:36:00,70.4,64.3,29.83,SE,142,0.6,1.1,81,0.00,,,0.12,WUHU216HW,2013-06-11 02:36:00,
2013-06-10 22:37:00,70.4,64.3,29.83,SSE,158,0.4,1.1,81,0.00,,,0.12,WUHU216HW,2013-06-11 02:37:00,
2013-06-10 22:38:00,70.4,64.3,29.83,SSE,158,0.4,1.1,81,0.00,,,0.12,WUHU216HW,2013-06-11 02:38:00,
2013-06-10 22:39:00,70.4,64.3,29.83,SE,135,0.7,0.9,81,0.00,,,0.12,WUHU216HW,2013-06-11 02:39:00,
2013-06-10 22:42:00,70.2,64.5,29.83,ESE,113,1.2,1.3,82,0.00,,,0.12,WUHU216HW,2013-06-11 02:42:00,
2013-06-10 22:43:00,70.2,64.5,29.83,SE,135,0.7,1.3,82,0.00,,,0.12,WUHU216HW,2013-06-11 02:43:00,
2013-06-10 22:44:00,70.2,64.5,29.83,SSE,158,1.1,1.3,82,0.00,,,0.12,WUHU216HW,2013-06-11 02:44:00,
2013-06-10 22:45:00,70.2,64.5,29.83,SSE,147,1.0,1.3,82,0.00,,,0.12,WUHU216HW,2013-06-11 02:45:00,
2013-06-10 22:47:00,70.2,64.5,29.84,SE,135,1.6,1.6,82,0.00,,,0.12,WUHU216HW,2013-06-11 02:47:00,
2013-06-10 22:48:00,70.2,64.5,29.84,ESE,113,1.3,1.6,82,0.00,,,0.12,WUHU216HW,2013-06-11 02:48:00,
2013-06-10 22:50:00,70.4,64.6,29.83,SE,145,2.0,2.2,82,0.00,,,0.12,WUHU216HW,2013-06-11 02:50:00,
2013-06-10 22:52:00,70.4,64.6,29.84,SSE,156,1.2,2.2,82,0.00,,,0.12,WUHU216HW,2013-06-11 02:52:00,
2013-06-10 22:55:00,70.4,64.6,29.84,SSE,158,1.3,2.2,82,0.00,,,0.12,WUHU216HW,2013-06-11 02:55:00,
2013-06-10 22:56:00,70.4,64.6,29.84,SSE,155,0.8,2.2,82,0.00,,,0.12,WUHU216HW,2013-06-11 02:56:00,
2013-06-10 22:57:00,70.4,64.6,29.84,SSE,155,0.8,2.2,82,0.00,,,0.12,WUHU216HW,2013-06-11 02:57:00,
2013-06-10 23:00:00,70.4,64.6,29.84,ESE,113,0.8,1.3,82,0.00,,,0.12,WUHU216HW,2013-06-11 03:00:00,
2013-06-10 23:01:00,70.4,64.6,29.84,SE,135,0.9,1.3,82,0.00,,,0.12,WUHU216HW,2013-06-11 03:01:00,
2013-06-10 23:02:00,70.6,65.1,29.84,SE,135,0.6,1.3,83,0.00,,,0.12,WUHU216HW,2013-06-11 03:02:00,
2013-06-10 23:03:00,70.4,64.9,29.84,SE,135,0.7,1.3,83,0.00,,,0.12,WUHU216HW,2013-06-11 03:03:00,
2013-06-10 23:05:00,70.6,65.1,29.84,SE,135,1.8,2.5,83,0.00,,,0.12,WUHU216HW,2013-06-11 03:05:00,
2013-06-10 23:06:00,70.6,65.1,29.84,SE,135,1.8,2.5,83,0.00,,,0.12,WUHU216HW,2013-06-11 03:06:00,
2013-06-10 23:08:00,70.6,65.1,29.84,SE,126,1.5,2.5,83,0.00,,,0.12,WUHU216HW,2013-06-11 03:08:00,
2013-06-10 23:10:00,70.7,65.3,29.84,South,180,2.5,2.5,83,0.00,,,0.12,WUHU216HW,2013-06-11 03:10:00,
2013-06-10 23:12:00,70.7,65.3,29.84,SSE,158,2.0,2.5,83,0.00,,,0.12,WUHU216HW,2013-06-11 03:12:00,
2013-06-10 23:13:00,70.7,65.3,29.84,SE,135,2.5,2.5,83,0.00,,,0.12,WUHU216HW,2013-06-11 03:13:00,
2013-06-10 23:15:00,70.9,65.4,29.84,SE,135,1.6,2.5,83,0.00,,,0.12,WUHU216HW,2013-06-11 03:15:00,
2013-06-10 23:16:00,70.9,65.4,29.84,SE,135,1.6,2.5,83,0.00,,,0.12,WUHU216HW,2013-06-11 03:16:00,
2013-06-10 23:18:00,70.9,65.4,29.84,SSE,152,1.5,2.5,83,0.00,,,0.12,WUHU216HW,2013-06-11 03:18:00,
2013-06-10 23:19:00,70.9,65.4,29.84,SE,135,2.5,2.5,83,0.00,,,0.12,WUHU216HW,2013-06-11 03:19:00,
2013-06-10 23:20:00,70.9,65.2,29.84,SE,135,1.8,2.5,82,0.00,,,0.12,WUHU216HW,2013-06-11 03:20:00,
2013-06-10 23:22:00,70.9,65.2,29.84,SE,135,1.6,2.5,82,0.00,,,0.12,WUHU216HW,2013-06-11 03:22:00,
2013-06-10 23:23:00,70.9,65.2,29.84,SSW,203,1.3,2.5,82,0.00,,,0.12,WUHU216HW,2013-06-11 03:23:00,
2013-06-10 23:24:00,70.9,65.2,29.84,SSE,158,1.8,2.5,82,0.00,,,0.12,WUHU216HW,2013-06-11 03:24:00,
2013-06-10 23:26:00,70.9,65.2,29.84,SE,135,2.2,2.5,82,0.00,,,0.12,WUHU216HW,2013-06-11 03:26:00,
2013-06-10 23:28:00,70.9,65.2,29.84,SSE,158,3.6,3.6,82,0.00,,,0.12,WUHU216HW,2013-06-11 03:28:00,
2013-06-10 23:29:00,70.9,65.4,29.84,SSE,152,2.3,3.6,83,0.00,,,0.12,WUHU216HW,2013-06-11 03:29:00,
2013-06-10 23:30:00,70.9,65.2,29.84,SSE,158,2.9,3.6,82,0.00,,,0.12,WUHU216HW,2013-06-11 03:30:00,
2013-06-10 23:31:00,70.9,65.2,29.84,SE,135,3.1,3.6,82,0.00,,,0.12,WUHU216HW,2013-06-11 03:31:00,
2013-06-10 23:32:00,70.9,65.2,29.84,SE,128,2.2,3.6,82,0.00,,,0.12,WUHU216HW,2013-06-11 03:32:00,
2013-06-10 23:33:00,71.1,65.4,29.84,SE,135,2.5,3.6,82,0.00,,,0.12,WUHU216HW,2013-06-11 03:33:00,
2013-06-10 23:34:00,70.9,65.2,29.84,ESE,120,1.9,3.6,82,0.00,,,0.12,WUHU216HW,2013-06-11 03:34:00,
2013-06-10 23:36:00,70.9,65.2,29.84,SE,135,1.1,3.6,82,0.00,,,0.12,WUHU216HW,2013-06-11 03:36:00,
2013-06-10 23:37:00,71.1,65.4,29.84,SSW,203,2.0,3.6,82,0.00,,,0.12,WUHU216HW,2013-06-11 03:37:00,
2013-06-10 23:38:00,71.1,65.4,29.84,South,180,2.2,3.1,82,0.00,,,0.12,WUHU216HW,2013-06-11 03:38:00,
2013-06-10 23:40:00,71.1,65.4,29.84,SE,126,1.4,3.1,82,0.00,,,0.12,WUHU216HW,2013-06-11 03:40:00,
2013-06-10 23:41:00,71.1,65.4,29.84,South,180,2.2,2.5,82,0.00,,,0.12,WUHU216HW,2013-06-11 03:41:00,
2013-06-10 23:42:00,71.1,65.4,29.84,SSE,165,1.7,2.5,82,0.00,,,0.12,WUHU216HW,2013-06-11 03:42:00,
2013-06-10 23:43:00,70.9,65.2,29.84,SSE,158,2.0,2.2,82,0.00,,,0.12,WUHU216HW,2013-06-11 03:43:00,
2013-06-10 23:45:00,70.9,65.2,29.84,SE,135,2.2,2.2,82,0.00,,,0.12,WUHU216HW,2013-06-11 03:45:00,
2013-06-10 23:47:00,70.9,65.2,29.84,SE,135,0.9,2.2,82,0.00,,,0.12,WUHU216HW,2013-06-11 03:47:00,
2013-06-10 23:48:00,70.9,65.2,29.84,SSE,158,1.1,2.2,82,0.00,,,0.12,WUHU216HW,2013-06-11 03:48:00,
2013-06-10 23:50:00,70.9,65.2,29.84,SE,135,1.5,2.2,82,0.00,,,0.12,WUHU216HW,2013-06-11 03:50:00,
2013-06-10 23:52:00,70.9,65.2,29.84,SE,135,1.8,2.2,82,0.00,,,0.12,WUHU216HW,2013-06-11 03:52:00,
2013-06-10 23:53:00,70.9,65.2,29.84,SE,135,1.8,2.2,82,0.00,,,0.12,WUHU216HW,2013-06-11 03:53:00,
2013-06-10 23:54:00,70.9,65.2,29.84,SSE,158,2.2,2.2,82,0.00,,,0.12,WUHU216HW,2013-06-11 03:54:00,
2013-06-10 23:56:00,70.9,65.2,29.84,SE,135,1.8,2.2,82,0.00,,,0.12,WUHU216HW,2013-06-11 03:56:00,
2013-06-10 23:58:00,70.9,65.2,29.84,SSE,152,1.7,2.5,82,0.00,,,0.12,WUHU216HW,2013-06-11 03:58:00,
2013-06-10 23:59:00,70.9,65.2,29.84,SSE,158,1.8,2.5,82,0.00,,,0.00,WUHU216HW,2013-06-11 03:59:00,